Time,TemperatureF,DewpointF,PressureIn,WindDirection,WindDirectionDegrees,WindSpeedMPH,WindSpeedGustMPH,Humidity,HourlyPrecipIn,Conditions,Clouds,dailyrainin,SoftwareType,DateUTC
2013-09-17 00:01:00,80.3,72.8,29.92,ENE,66,1.0,1.0,78,0.00,,SCT020,0.00,VWS V14.01,2013-09-17 04:01:00,
2013-09-17 00:02:00,80.3,72.8,29.92,ENE,66,1.0,2.0,78,0.00,,SCT020,0.00,VWS V14.01,2013-09-17 04:02:00,
2013-09-17 00:03:00,80.3,72.8,29.92,ENE,66,2.0,2.0,78,0.00,,SCT020,0.00,VWS V14.01,2013-09-17 04:03:00,
2013-09-17 00:04:00,80.3,72.8,29.92,ENE,66,1.0,2.0,78,0.00,,SCT020,0.00,VWS V14.01,2013-09-17 04:04:00,
2013-09-17 00:07:00,80.3,72.8,29.92,ENE,78,2.0,6.0,78,0.00,,SCT020,0.00,VWS V14.01,2013-09-17 04:07:00,
2013-09-17 00:09:00,80.3,72.8,29.92,NE,54,2.0,2.0,78,0.00,,SCT020,0.00,VWS V14.01,2013-09-17 04:09:00,
2013-09-17 00:11:00,80.3,72.8,29.92,East,80,2.0,4.0,78,0.00,,SCT020,0.00,VWS V14.01,2013-09-17 04:11:00,
2013-09-17 00:12:00,80.3,72.8,29.92,ENE,78,1.0,4.0,78,0.00,,SCT020,0.00,VWS V14.01,2013-09-17 04:12:00,
2013-09-17 00:14:00,80.5,73.0,29.92,ENE,64,4.0,6.0,78,0.00,,SCT020,0.00,VWS V14.01,2013-09-17 04:14:00,
2013-09-17 00:15:00,80.5,73.0,29.92,ENE,58,4.0,4.0,78,0.00,,SCT020,0.00,VWS V14.01,2013-09-17 04:15:00,
2013-09-17 00:17:00,80.5,73.0,29.92,ENE,59,4.0,4.0,78,0.00,,SCT020,0.00,VWS V14.01,2013-09-17 04:17:00,
2013-09-17 00:18:00,80.5,73.0,29.92,East,80,2.0,4.0,78,0.00,,SCT020,0.00,VWS V14.01,2013-09-17 04:18:00,
2013-09-17 00:20:00,80.5,73.0,29.92,ENE,69,4.0,7.0,78,0.00,,SCT020,0.00,VWS V14.01,2013-09-17 04:20:00,
2013-09-17 00:22:00,80.7,73.6,29.92,East,79,8.0,8.0,79,0.00,,SCT020,0.00,VWS V14.01,2013-09-17 04:22:00,
2013-09-17 00:24:00,80.7,73.6,29.92,ENE,61,4.0,6.0,79,0.00,,SCT020,0.00,VWS V14.01,2013-09-17 04:24:00,
2013-09-17 00:25:00,80.7,73.6,29.92,East,82,1.0,7.0,79,0.00,,SCT020,0.00,VWS V14.01,2013-09-17 04:25:00,
2013-09-17 00:26:00,80.9,73.8,29.92,ENE,75,4.0,6.0,79,0.00,,SCT020,0.00,VWS V14.01,2013-09-17 04:26:00,
2013-09-17 00:28:00,80.9,73.8,29.92,East,80,1.0,6.0,79,0.00,,SCT020,0.00,VWS V14.01,2013-09-17 04:28:00,
2013-09-17 00:29:00,80.9,73.8,29.92,ESE,112,1.0,4.0,79,0.00,,SCT020,0.00,VWS V14.01,2013-09-17 04:29:00,
2013-09-17 00:30:00,80.9,73.8,29.91,ESE,119,6.0,7.0,79,0.00,,SCT020,0.00,VWS V14.01,2013-09-17 04:30:00,
2013-09-17 00:31:00,80.9,73.8,29.91,ESE,114,1.0,6.0,79,0.00,,SCT020,0.00,VWS V14.01,2013-09-17 04:31:00,
2013-09-17 00:33:00,80.7,73.6,29.91,ESE,113,0.0,4.0,79,0.00,,SCT020,0.00,VWS V14.01,2013-09-17 04:33:00,
2013-09-17 00:38:00,80.7,73.6,29.91,SE,133,1.0,2.0,79,0.00,,SCT020,0.00,VWS V14.01,2013-09-17 04:38:00,
2013-09-17 00:39:00,80.7,74.0,29.91,SE,133,1.0,1.0,80,0.00,,SCT020,0.00,VWS V14.01,2013-09-17 04:39:00,
2013-09-17 00:40:00,80.5,73.8,29.91,SE,133,1.0,1.0,80,0.00,,SCT020,0.00,VWS V14.01,2013-09-17 04:40:00,
2013-09-17 00:43:00,80.5,74.1,29.91,SE,133,0.0,0.0,81,0.00,,SCT020,0.00,VWS V14.01,2013-09-17 04:43:00,
2013-09-17 00:45:00,80.3,73.9,29.91,SE,131,1.0,2.0,81,0.00,,SCT020,0.00,VWS V14.01,2013-09-17 04:45:00,
2013-09-17 00:47:00,80.3,73.9,29.91,ESE,110,1.0,2.0,81,0.00,,SCT020,0.00,VWS V14.01,2013-09-17 04:47:00,
2013-09-17 00:49:00,80.1,73.8,29.91,ESE,110,1.0,1.0,81,0.00,,SCT020,0.00,VWS V14.01,2013-09-17 04:49:00,
2013-09-17 00:50:00,80.1,73.8,29.91,ESE,116,4.0,6.0,81,0.00,,SCT020,0.00,VWS V14.01,2013-09-17 04:50:00,
2013-09-17 00:51:00,80.1,73.8,29.91,East,97,6.0,6.0,81,0.00,,SCT020,0.00,VWS V14.01,2013-09-17 04:51:00,
2013-09-17 00:55:00,80.1,73.8,29.91,East,100,0.0,4.0,81,0.00,,SCT020,0.00,VWS V14.01,2013-09-17 04:55:00,
2013-09-17 00:56:00,80.1,73.8,29.91,East,99,2.0,2.0,81,0.00,,SCT020,0.00,VWS V14.01,2013-09-17 04:56:00,
2013-09-17 00:57:00,80.1,73.8,29.91,East,99,0.0,2.0,81,0.00,,SCT020,0.00,VWS V14.01,2013-09-17 04:57:00,
2013-09-17 00:58:00,80.1,73.4,29.91,East,97,0.0,1.0,80,0.00,,SCT020,0.00,VWS V14.01,2013-09-17 04:58:00,
2013-09-17 01:02:00,80.1,73.4,29.91,ESE,113,1.0,4.0,80,0.00,,SCT020,0.00,VWS V14.01,2013-09-17 05:02:00,
2013-09-17 01:03:00,80.1,73.4,29.91,ESE,112,1.0,2.0,80,0.00,,SCT020,0.00,VWS V14.01,2013-09-17 05:03:00,
2013-09-17 01:05:00,80.1,73.0,29.91,ESE,110,0.0,4.0,79,0.00,,SCT020,0.00,VWS V14.01,2013-09-17 05:05:00,
2013-09-17 01:07:00,80.1,73.0,29.91,ESE,114,0.0,4.0,79,0.00,,SCT020,0.00,VWS V14.01,2013-09-17 05:07:00,
2013-09-17 01:09:00,80.1,73.0,29.91,ESE,104,6.0,7.0,79,0.00,,SCT020,0.00,VWS V14.01,2013-09-17 05:09:00,
2013-09-17 01:11:00,80.3,73.2,29.91,ESE,121,1.0,4.0,79,0.00,,SCT020,0.00,VWS V14.01,2013-09-17 05:11:00,
2013-09-17 01:12:00,80.3,72.8,29.91,ESE,120,2.0,2.0,78,0.00,,SCT020,0.00,VWS V14.01,2013-09-17 05:12:00,
2013-09-17 01:14:00,80.3,72.8,29.91,ENE,72,1.0,2.0,78,0.00,,SCT020,0.00,VWS V14.01,2013-09-17 05:14:00,
2013-09-17 01:15:00,80.3,72.8,29.90,ENE,72,6.0,6.0,78,0.00,,SCT020,0.00,VWS V14.01,2013-09-17 05:15:00,
2013-09-17 01:16:00,80.3,72.8,29.90,ENE,78,6.0,7.0,78,0.00,,SCT020,0.00,VWS V14.01,2013-09-17 05:16:00,
2013-09-17 01:17:00,80.3,72.8,29.90,East,92,2.0,6.0,78,0.00,,SCT020,0.00,VWS V14.01,2013-09-17 05:17:00,
2013-09-17 01:18:00,80.3,72.8,29.90,ENE,62,4.0,4.0,78,0.00,,SCT020,0.00,VWS V14.01,2013-09-17 05:18:00,
2013-09-17 01:22:00,80.3,73.2,29.90,East,97,4.0,4.0,79,0.00,,SCT020,0.00,VWS V14.01,2013-09-17 05:22:00,
2013-09-17 01:23:00,80.3,73.2,29.90,East,96,0.0,4.0,79,0.00,,SCT020,0.00,VWS V14.01,2013-09-17 05:23:00,
2013-09-17 01:24:00,80.3,73.2,29.90,East,93,2.0,2.0,79,0.00,,SCT020,0.00,VWS V14.01,2013-09-17 05:24:00,
2013-09-17 01:27:00,80.3,73.2,29.90,ESE,103,1.0,4.0,79,0.00,,SCT020,0.00,VWS V14.01,2013-09-17 05:27:00,
2013-09-17 01:28:00,80.3,73.2,29.90,East,90,4.0,4.0,79,0.00,,SCT020,0.00,VWS V14.01,2013-09-17 05:28:00,
2013-09-17 01:29:00,80.3,73.2,29.90,East,85,1.0,4.0,79,0.00,,SCT020,0.00,VWS V14.01,2013-09-17 05:29:00,
2013-09-17 01:33:00,80.3,73.2,29.89,SE,128,4.0,4.0,79,0.00,,SCT020,0.00,VWS V14.01,2013-09-17 05:33:00,
2013-09-17 01:34:00,80.3,73.2,29.89,ESE,114,7.0,7.0,79,0.00,,SCT020,0.00,VWS V14.01,2013-09-17 05:34:00,
2013-09-17 01:38:00,80.3,73.2,29.89,ESE,116,1.0,2.0,79,0.00,,SCT020,0.00,VWS V14.01,2013-09-17 05:38:00,
2013-09-17 01:39:00,80.3,73.2,29.89,East,99,4.0,6.0,79,0.00,,SCT020,0.00,VWS V14.01,2013-09-17 05:39:00,
2013-09-17 01:40:00,80.1,73.0,29.89,East,100,6.0,7.0,79,0.00,,SCT020,0.00,VWS V14.01,2013-09-17 05:40:00,
2013-09-17 01:42:00,80.1,73.0,29.89,East,88,2.0,7.0,79,0.00,,SCT020,0.00,VWS V14.01,2013-09-17 05:42:00,
2013-09-17 01:45:00,80.1,73.0,29.88,ENE,73,4.0,6.0,79,0.00,,SCT020,0.00,VWS V14.01,2013-09-17 05:45:00,
2013-09-17 01:47:00,80.1,73.0,29.88,East,89,2.0,4.0,79,0.00,,SCT020,0.00,VWS V14.01,2013-09-17 05:47:00,
2013-09-17 01:49:00,80.1,73.0,29.88,East,88,2.0,4.0,79,0.00,,SCT020,0.00,VWS V14.01,2013-09-17 05:49:00,
2013-09-17 01:50:00,80.1,73.0,29.88,East,88,1.0,4.0,79,0.00,,SCT020,0.00,VWS V14.01,2013-09-17 05:50:00,
2013-09-17 01:52:00,80.1,73.0,29.88,ESE,106,2.0,4.0,79,0.00,,SCT020,0.00,VWS V14.01,2013-09-17 05:52:00,
2013-09-17 01:53:00,80.1,73.0,29.88,ESE,103,4.0,4.0,79,0.00,,SCT020,0.00,VWS V14.01,2013-09-17 05:53:00,
2013-09-17 01:55:00,80.1,73.0,29.88,ESE,114,1.0,6.0,79,0.00,,SCT020,0.00,VWS V14.01,2013-09-17 05:55:00,
2013-09-17 01:57:00,79.9,72.8,29.88,East,92,2.0,4.0,79,0.00,,SCT020,0.00,VWS V14.01,2013-09-17 05:57:00,
2013-09-17 02:00:00,79.9,72.8,29.88,East,95,2.0,4.0,79,0.00,,SCT020,0.00,VWS V14.01,2013-09-17 06:00:00,
2013-09-17 02:02:00,79.9,72.8,29.88,ENE,69,1.0,2.0,79,0.00,,SCT020,0.00,VWS V14.01,2013-09-17 06:02:00,
2013-09-17 02:06:00,79.9,72.8,29.88,East,100,1.0,4.0,79,0.00,,SCT020,0.00,VWS V14.01,2013-09-17 06:06:00,
2013-09-17 02:08:00,79.9,72.8,29.88,East,93,1.0,4.0,79,0.00,,SCT020,0.00,VWS V14.01,2013-09-17 06:08:00,
2013-09-17 02:09:00,79.9,73.2,29.88,East,93,0.0,2.0,80,0.00,,SCT020,0.00,VWS V14.01,2013-09-17 06:09:00,
2013-09-17 02:10:00,79.9,73.2,29.88,East,86,2.0,4.0,80,0.00,,SCT020,0.00,VWS V14.01,2013-09-17 06:10:00,
2013-09-17 02:11:00,79.9,73.2,29.88,ESE,102,1.0,4.0,80,0.00,,SCT020,0.00,VWS V14.01,2013-09-17 06:11:00,
2013-09-17 02:12:00,79.9,73.2,29.88,ENE,61,2.0,2.0,80,0.00,,SCT020,0.00,VWS V14.01,2013-09-17 06:12:00,
2013-09-17 02:16:00,79.9,73.2,29.88,ESE,120,1.0,1.0,80,0.00,,SCT020,0.00,VWS V14.01,2013-09-17 06:16:00,
2013-09-17 02:18:00,79.9,73.2,29.88,ENE,75,2.0,6.0,80,0.00,,SCT020,0.00,VWS V14.01,2013-09-17 06:18:00,
2013-09-17 02:19:00,79.9,73.2,29.88,ENE,78,1.0,2.0,80,0.00,,SCT020,0.00,VWS V14.01,2013-09-17 06:19:00,
2013-09-17 02:20:00,79.9,73.2,29.88,NE,54,0.0,2.0,80,0.00,,SCT020,0.00,VWS V14.01,2013-09-17 06:20:00,
2013-09-17 02:21:00,79.9,73.2,29.88,NE,54,2.0,2.0,80,0.00,,SCT020,0.00,VWS V14.01,2013-09-17 06:21:00,
2013-09-17 02:23:00,79.8,73.1,29.88,East,96,2.0,7.0,80,0.00,,SCT020,0.00,VWS V14.01,2013-09-17 06:23:00,
2013-09-17 02:25:00,79.8,73.1,29.88,SE,136,2.0,2.0,80,0.00,,SCT020,0.00,VWS V14.01,2013-09-17 06:25:00,
2013-09-17 02:26:00,79.8,73.1,29.88,ENE,68,2.0,4.0,80,0.00,,SCT020,0.00,VWS V14.01,2013-09-17 06:26:00,
2013-09-17 02:27:00,79.8,73.1,29.88,ESE,117,1.0,4.0,80,0.00,,SCT020,0.00,VWS V14.01,2013-09-17 06:27:00,
2013-09-17 02:28:00,79.8,73.1,29.88,ENE,71,4.0,6.0,80,0.00,,SCT020,0.00,VWS V14.01,2013-09-17 06:28:00,
2013-09-17 02:31:00,79.8,73.1,29.88,East,92,1.0,2.0,80,0.00,,SCT020,0.00,VWS V14.01,2013-09-17 06:31:00,
2013-09-17 02:33:00,79.8,73.1,29.88,ESE,107,1.0,2.0,80,0.00,,SCT020,0.00,VWS V14.01,2013-09-17 06:33:00,
2013-09-17 02:36:00,79.8,73.1,29.88,ESE,112,0.0,4.0,80,0.00,,SCT020,0.00,VWS V14.01,2013-09-17 06:36:00,
2013-09-17 02:37:00,79.8,72.7,29.88,East,99,1.0,2.0,79,0.00,,SCT020,0.00,VWS V14.01,2013-09-17 06:37:00,
2013-09-17 02:38:00,79.8,72.7,29.88,East,97,1.0,2.0,79,0.00,,SCT020,0.00,VWS V14.01,2013-09-17 06:38:00,
2013-09-17 02:39:00,79.8,72.7,29.88,East,97,2.0,2.0,79,0.00,,SCT020,0.00,VWS V14.01,2013-09-17 06:39:00,
2013-09-17 02:40:00,79.8,72.7,29.88,East,97,0.0,2.0,79,0.00,,SCT020,0.00,VWS V14.01,2013-09-17 06:40:00,
2013-09-17 02:43:00,79.8,72.7,29.88,ESE,114,1.0,2.0,79,0.00,,SCT020,0.00,VWS V14.01,2013-09-17 06:43:00,
2013-09-17 02:45:00,79.8,72.7,29.88,East,79,4.0,4.0,79,0.00,,SCT020,0.00,VWS V14.01,2013-09-17 06:45:00,
2013-09-17 02:46:00,79.8,72.7,29.88,ESE,116,2.0,4.0,79,0.00,,SCT020,0.00,VWS V14.01,2013-09-17 06:46:00,
2013-09-17 02:49:00,79.6,72.5,29.88,East,79,1.0,2.0,79,0.00,,SCT020,0.00,VWS V14.01,2013-09-17 06:49:00,
2013-09-17 02:50:00,79.6,72.5,29.88,East,79,0.0,1.0,79,0.00,,SCT020,0.00,VWS V14.01,2013-09-17 06:50:00,
2013-09-17 02:51:00,79.6,72.9,29.88,East,79,1.0,2.0,80,0.00,,SCT020,0.00,VWS V14.01,2013-09-17 06:51:00,
2013-09-17 02:52:00,79.6,72.9,29.88,East,95,1.0,4.0,80,0.00,,SCT020,0.00,VWS V14.01,2013-09-17 06:52:00,
2013-09-17 02:56:00,79.6,72.9,29.88,ENE,78,2.0,2.0,80,0.00,,SCT020,0.00,VWS V14.01,2013-09-17 06:56:00,
2013-09-17 02:57:00,79.6,72.9,29.88,East,79,1.0,2.0,80,0.00,,SCT020,0.00,VWS V14.01,2013-09-17 06:57:00,
2013-09-17 03:01:00,79.6,72.9,29.87,ESE,113,1.0,2.0,80,0.00,,SCT020,0.00,VWS V14.01,2013-09-17 07:01:00,
2013-09-17 03:03:00,79.6,72.9,29.87,East,99,1.0,2.0,80,0.00,,SCT020,0.00,VWS V14.01,2013-09-17 07:03:00,
2013-09-17 03:04:00,79.6,72.9,29.87,ESE,102,4.0,4.0,80,0.00,,SCT020,0.00,VWS V14.01,2013-09-17 07:04:00,
2013-09-17 03:06:00,79.6,72.9,29.87,East,99,2.0,4.0,80,0.00,,SCT020,0.00,VWS V14.01,2013-09-17 07:06:00,
2013-09-17 03:07:00,79.6,72.9,29.87,East,99,1.0,2.0,80,0.00,,SCT020,0.00,VWS V14.01,2013-09-17 07:07:00,
2013-09-17 03:09:00,79.6,72.9,29.87,East,99,0.0,1.0,80,0.00,,SCT020,0.00,VWS V14.01,2013-09-17 07:09:00,
2013-09-17 03:10:00,79.6,72.9,29.87,East,99,0.0,1.0,80,0.00,,SCT020,0.00,VWS V14.01,2013-09-17 07:10:00,
2013-09-17 03:12:00,79.6,72.9,29.87,East,96,2.0,2.0,80,0.00,,SCT020,0.00,VWS V14.01,2013-09-17 07:12:00,
2013-09-17 03:15:00,79.6,72.9,29.87,East,93,0.0,0.0,80,0.00,,SCT020,0.00,VWS V14.01,2013-09-17 07:15:00,
2013-09-17 03:16:00,79.6,72.9,29.87,East,93,0.0,1.0,80,0.00,,SCT020,0.00,VWS V14.01,2013-09-17 07:16:00,
2013-09-17 03:17:00,79.6,72.9,29.87,East,93,0.0,1.0,80,0.00,,SCT020,0.00,VWS V14.01,2013-09-17 07:17:00,
2013-09-17 03:19:00,79.6,72.9,29.87,East,93,0.0,0.0,80,0.00,,SCT020,0.00,VWS V14.01,2013-09-17 07:19:00,
2013-09-17 03:20:00,79.6,72.9,29.87,East,93,1.0,1.0,80,0.00,,SCT020,0.00,VWS V14.01,2013-09-17 07:20:00,
2013-09-17 03:22:00,79.6,73.3,29.87,East,95,1.0,2.0,81,0.00,,SCT020,0.00,VWS V14.01,2013-09-17 07:22:00,
2013-09-17 03:23:00,79.6,73.3,29.87,East,95,1.0,1.0,81,0.00,,SCT020,0.00,VWS V14.01,2013-09-17 07:23:00,
2013-09-17 03:25:00,79.4,73.1,29.87,SSE,151,1.0,4.0,81,0.00,,SCT020,0.00,VWS V14.01,2013-09-17 07:25:00,
2013-09-17 03:26:00,79.4,73.1,29.87,SSE,151,1.0,2.0,81,0.00,,SCT020,0.00,VWS V14.01,2013-09-17 07:26:00,
2013-09-17 03:27:00,79.4,73.1,29.87,SSE,164,1.0,6.0,81,0.00,,SCT020,0.00,VWS V14.01,2013-09-17 07:27:00,
2013-09-17 03:30:00,79.4,73.4,29.86,ESE,109,1.0,6.0,82,0.00,,SCT020,0.00,VWS V14.01,2013-09-17 07:30:00,
2013-09-17 03:32:00,79.2,72.9,29.86,East,88,4.0,7.0,81,0.00,,SCT020,0.00,VWS V14.01,2013-09-17 07:32:00,
2013-09-17 03:33:00,79.2,72.5,29.86,East,89,2.0,7.0,80,0.00,,SCT020,0.00,VWS V14.01,2013-09-17 07:33:00,
2013-09-17 03:34:00,79.2,72.5,29.86,ESE,102,6.0,7.0,80,0.00,,SCT020,0.00,VWS V14.01,2013-09-17 07:34:00,
2013-09-17 03:35:00,79.2,72.1,29.86,ESE,113,4.0,7.0,79,0.00,,SCT020,0.00,VWS V14.01,2013-09-17 07:35:00,
2013-09-17 03:40:00,79.0,71.6,29.86,ESE,121,4.0,7.0,78,0.00,,SCT020,0.00,VWS V14.01,2013-09-17 07:40:00,
2013-09-17 03:42:00,79.0,71.6,29.86,ESE,110,1.0,2.0,78,0.00,,SCT020,0.00,VWS V14.01,2013-09-17 07:42:00,
2013-09-17 03:43:00,79.0,71.6,29.86,ESE,123,2.0,2.0,78,0.00,,SCT020,0.00,VWS V14.01,2013-09-17 07:43:00,
2013-09-17 03:44:00,79.0,71.2,29.86,ESE,107,0.0,4.0,77,0.00,,SCT020,0.00,VWS V14.01,2013-09-17 07:44:00,
2013-09-17 03:47:00,79.0,71.2,29.86,ESE,109,1.0,4.0,77,0.00,,SCT020,0.00,VWS V14.01,2013-09-17 07:47:00,
2013-09-17 03:48:00,79.0,71.2,29.86,ESE,109,0.0,1.0,77,0.00,,SCT020,0.00,VWS V14.01,2013-09-17 07:48:00,
2013-09-17 03:51:00,78.8,71.0,29.86,East,96,2.0,2.0,77,0.00,,SCT020,0.00,VWS V14.01,2013-09-17 07:51:00,
2013-09-17 03:52:00,78.8,70.6,29.86,East,96,2.0,2.0,76,0.00,,SCT020,0.00,VWS V14.01,2013-09-17 07:52:00,
2013-09-17 03:54:00,78.8,70.6,29.86,East,96,1.0,2.0,76,0.00,,SCT020,0.00,VWS V14.01,2013-09-17 07:54:00,
2013-09-17 03:57:00,78.8,70.6,29.86,East,96,1.0,1.0,76,0.00,,SCT020,0.00,VWS V14.01,2013-09-17 07:57:00,
2013-09-17 03:58:00,78.8,70.6,29.86,East,96,0.0,2.0,76,0.00,,SCT020,0.00,VWS V14.01,2013-09-17 07:58:00,
2013-09-17 03:59:00,78.8,70.6,29.86,East,96,0.0,0.0,76,0.00,,SCT020,0.00,VWS V14.01,2013-09-17 07:59:00,
2013-09-17 04:02:00,78.8,71.0,29.87,East,96,0.0,0.0,77,0.00,,SCT020,0.00,VWS V14.01,2013-09-17 08:02:00,
2013-09-17 04:03:00,78.8,71.0,29.87,East,96,0.0,1.0,77,0.00,,SCT020,0.00,VWS V14.01,2013-09-17 08:03:00,
2013-09-17 04:04:00,78.8,71.0,29.87,East,96,0.0,0.0,77,0.00,,SCT020,0.00,VWS V14.01,2013-09-17 08:04:00,
2013-09-17 04:05:00,78.8,71.0,29.87,East,96,0.0,0.0,77,0.00,,SCT020,0.00,VWS V14.01,2013-09-17 08:05:00,
2013-09-17 04:06:00,78.6,70.8,29.87,East,96,0.0,0.0,77,0.00,,SCT020,0.00,VWS V14.01,2013-09-17 08:06:00,
2013-09-17 04:09:00,78.6,70.8,29.87,East,96,0.0,0.0,77,0.00,,SCT020,0.00,VWS V14.01,2013-09-17 08:09:00,
2013-09-17 04:11:00,78.6,71.2,29.87,East,96,0.0,0.0,78,0.00,,SCT020,0.00,VWS V14.01,2013-09-17 08:11:00,
2013-09-17 04:12:00,78.6,71.2,29.87,East,96,0.0,0.0,78,0.00,,SCT020,0.00,VWS V14.01,2013-09-17 08:12:00,
2013-09-17 04:13:00,78.6,70.8,29.87,East,96,0.0,0.0,77,0.00,,SCT020,0.00,VWS V14.01,2013-09-17 08:13:00,
2013-09-17 04:16:00,78.5,71.1,29.87,East,96,0.0,0.0,78,0.00,,SCT020,0.00,VWS V14.01,2013-09-17 08:16:00,
2013-09-17 04:18:00,78.5,71.1,29.87,East,96,0.0,0.0,78,0.00,,SCT020,0.00,VWS V14.01,2013-09-17 08:18:00,
2013-09-17 04:19:00,78.5,71.1,29.87,East,96,0.0,0.0,78,0.00,,SCT020,0.00,VWS V14.01,2013-09-17 08:19:00,
2013-09-17 04:21:00,78.5,71.1,29.87,East,96,0.0,0.0,78,0.00,,SCT020,0.00,VWS V14.01,2013-09-17 08:21:00,
2013-09-17 04:23:00,78.3,70.9,29.87,East,96,0.0,0.0,78,0.00,,SCT020,0.00,VWS V14.01,2013-09-17 08:23:00,
2013-09-17 04:26:00,78.3,70.9,29.87,East,96,0.0,0.0,78,0.00,,SCT020,0.00,VWS V14.01,2013-09-17 08:26:00,
2013-09-17 04:27:00,78.3,70.9,29.87,East,96,0.0,0.0,78,0.00,,SCT020,0.00,VWS V14.01,2013-09-17 08:27:00,
2013-09-17 04:29:00,78.3,70.9,29.87,East,96,0.0,0.0,78,0.00,,SCT020,0.00,VWS V14.01,2013-09-17 08:29:00,
2013-09-17 04:30:00,78.3,70.9,29.87,East,96,0.0,0.0,78,0.00,,SCT020,0.00,VWS V14.01,2013-09-17 08:30:00,
2013-09-17 04:32:00,78.1,70.7,29.87,East,96,0.0,0.0,78,0.00,,SCT020,0.00,VWS V14.01,2013-09-17 08:32:00,
2013-09-17 04:35:00,78.1,71.1,29.87,East,96,0.0,0.0,79,0.00,,SCT020,0.00,VWS V14.01,2013-09-17 08:35:00,
2013-09-17 04:37:00,78.1,71.1,29.87,East,96,0.0,0.0,79,0.00,,SCT020,0.00,VWS V14.01,2013-09-17 08:37:00,
2013-09-17 04:39:00,78.1,71.1,29.87,East,96,0.0,0.0,79,0.00,,SCT020,0.00,VWS V14.01,2013-09-17 08:39:00,
2013-09-17 04:40:00,78.1,71.1,29.87,East,96,0.0,0.0,79,0.00,,SCT020,0.00,VWS V14.01,2013-09-17 08:40:00,
2013-09-17 04:42:00,77.9,70.9,29.87,East,96,0.0,0.0,79,0.00,,SCT020,0.00,VWS V14.01,2013-09-17 08:42:00,
2013-09-17 04:45:00,77.9,70.9,29.86,East,96,0.0,0.0,79,0.00,,SCT020,0.00,VWS V14.01,2013-09-17 08:45:00,
2013-09-17 04:46:00,77.9,70.9,29.86,East,96,0.0,0.0,79,0.00,,SCT020,0.00,VWS V14.01,2013-09-17 08:46:00,
2013-09-17 04:49:00,77.9,70.9,29.86,East,96,0.0,0.0,79,0.00,,SCT020,0.00,VWS V14.01,2013-09-17 08:49:00,
2013-09-17 04:50:00,77.7,70.7,29.86,East,96,0.0,0.0,79,0.00,,SCT020,0.00,VWS V14.01,2013-09-17 08:50:00,
2013-09-17 04:51:00,77.7,70.7,29.86,East,96,0.0,0.0,79,0.00,,SCT020,0.00,VWS V14.01,2013-09-17 08:51:00,
2013-09-17 04:53:00,77.7,70.7,29.86,East,96,0.0,0.0,79,0.00,,SCT020,0.00,VWS V14.01,2013-09-17 08:53:00,
2013-09-17 04:55:00,77.6,70.6,29.86,East,96,0.0,0.0,79,0.00,,SCT020,0.00,VWS V14.01,2013-09-17 08:55:00,
2013-09-17 04:56:00,77.6,70.6,29.86,East,96,0.0,0.0,79,0.00,,SCT020,0.00,VWS V14.01,2013-09-17 08:56:00,
2013-09-17 04:58:00,77.6,70.9,29.86,East,96,0.0,0.0,80,0.00,,SCT020,0.00,VWS V14.01,2013-09-17 08:58:00,
2013-09-17 05:00:00,77.6,70.9,29.86,East,96,0.0,0.0,80,0.00,,SCT020,0.00,VWS V14.01,2013-09-17 09:00:00,
2013-09-17 05:01:00,77.6,70.9,29.86,East,96,0.0,0.0,80,0.00,,SCT020,0.00,VWS V14.01,2013-09-17 09:01:00,
2013-09-17 05:02:00,77.6,70.9,29.86,East,96,0.0,0.0,80,0.00,,SCT020,0.00,VWS V14.01,2013-09-17 09:02:00,
2013-09-17 05:06:00,77.4,71.1,29.86,East,96,0.0,0.0,81,0.00,,SCT020,0.00,VWS V14.01,2013-09-17 09:06:00,
2013-09-17 05:08:00,77.4,71.1,29.86,East,96,0.0,0.0,81,0.00,,SCT020,0.00,VWS V14.01,2013-09-17 09:08:00,
2013-09-17 05:09:00,77.4,71.1,29.86,East,96,0.0,0.0,81,0.00,,SCT020,0.00,VWS V14.01,2013-09-17 09:09:00,
2013-09-17 05:10:00,77.4,71.1,29.86,East,96,0.0,0.0,81,0.00,,SCT020,0.00,VWS V14.01,2013-09-17 09:10:00,
2013-09-17 05:12:00,77.4,71.1,29.86,East,96,0.0,0.0,81,0.00,,SCT020,0.00,VWS V14.01,2013-09-17 09:12:00,
2013-09-17 05:16:00,77.2,70.9,29.85,East,96,0.0,0.0,81,0.00,,SCT020,0.00,VWS V14.01,2013-09-17 09:16:00,
2013-09-17 05:17:00,77.2,70.9,29.85,East,96,0.0,0.0,81,0.00,,SCT020,0.00,VWS V14.01,2013-09-17 09:17:00,
2013-09-17 05:19:00,77.2,71.3,29.85,East,96,0.0,0.0,82,0.00,,SCT020,0.00,VWS V14.01,2013-09-17 09:19:00,
2013-09-17 05:23:00,77.2,71.3,29.85,East,96,0.0,0.0,82,0.00,,SCT020,0.00,VWS V14.01,2013-09-17 09:23:00,
2013-09-17 05:25:00,77.0,71.1,29.85,East,96,0.0,0.0,82,0.00,,SCT020,0.00,VWS V14.01,2013-09-17 09:25:00,
2013-09-17 05:26:00,77.0,71.1,29.85,East,96,0.0,0.0,82,0.00,,SCT020,0.00,VWS V14.01,2013-09-17 09:26:00,
2013-09-17 05:27:00,77.0,71.4,29.85,East,96,0.0,0.0,83,0.00,,SCT020,0.00,VWS V14.01,2013-09-17 09:27:00,
2013-09-17 05:30:00,77.2,71.6,29.86,East,96,0.0,0.0,83,0.00,,SCT020,0.00,VWS V14.01,2013-09-17 09:30:00,
2013-09-17 05:31:00,77.2,71.6,29.86,East,96,0.0,0.0,83,0.00,,SCT020,0.00,VWS V14.01,2013-09-17 09:31:00,
2013-09-17 05:34:00,77.2,71.6,29.86,East,96,0.0,0.0,83,0.00,,SCT020,0.00,VWS V14.01,2013-09-17 09:34:00,
2013-09-17 05:36:00,77.2,72.0,29.86,East,96,0.0,1.0,84,0.00,,SCT020,0.00,VWS V14.01,2013-09-17 09:36:00,
2013-09-17 05:37:00,77.2,72.0,29.86,East,96,0.0,0.0,84,0.00,,SCT020,0.00,VWS V14.01,2013-09-17 09:37:00,
2013-09-17 05:38:00,77.2,72.0,29.86,East,96,0.0,0.0,84,0.00,,SCT020,0.00,VWS V14.01,2013-09-17 09:38:00,
2013-09-17 05:40:00,77.2,72.0,29.86,East,96,0.0,0.0,84,0.00,,SCT020,0.00,VWS V14.01,2013-09-17 09:40:00,
2013-09-17 05:42:00,77.2,72.0,29.86,East,96,0.0,0.0,84,0.00,,SCT020,0.00,VWS V14.01,2013-09-17 09:42:00,
2013-09-17 05:46:00,77.2,72.0,29.86,East,96,0.0,0.0,84,0.00,,SCT020,0.00,VWS V14.01,2013-09-17 09:46:00,
2013-09-17 05:47:00,77.2,72.0,29.86,East,96,0.0,0.0,84,0.00,,SCT020,0.00,VWS V14.01,2013-09-17 09:47:00,
2013-09-17 05:48:00,77.2,72.0,29.86,East,96,0.0,0.0,84,0.00,,SCT020,0.00,VWS V14.01,2013-09-17 09:48:00,
2013-09-17 05:49:00,77.2,72.0,29.86,East,96,0.0,0.0,84,0.00,,SCT020,0.00,VWS V14.01,2013-09-17 09:49:00,
2013-09-17 05:51:00,77.0,71.8,29.86,East,96,0.0,0.0,84,0.00,,SCT020,0.00,VWS V14.01,2013-09-17 09:51:00,
2013-09-17 05:53:00,77.0,71.8,29.86,East,96,0.0,0.0,84,0.00,,SCT020,0.00,VWS V14.01,2013-09-17 09:53:00,
2013-09-17 05:56:00,77.2,72.3,29.86,East,96,0.0,0.0,85,0.00,,SCT020,0.00,VWS V14.01,2013-09-17 09:56:00,
2013-09-17 05:57:00,77.2,72.3,29.86,East,96,0.0,0.0,85,0.00,,SCT020,0.00,VWS V14.01,2013-09-17 09:57:00,
2013-09-17 05:59:00,77.2,72.3,29.86,East,96,0.0,0.0,85,0.00,,SCT020,0.00,VWS V14.01,2013-09-17 09:59:00,
2013-09-17 06:01:00,77.2,72.3,29.87,East,96,0.0,1.0,85,0.00,,SCT020,0.00,VWS V14.01,2013-09-17 10:01:00,
2013-09-17 06:03:00,77.4,72.9,29.87,East,96,0.0,1.0,86,0.00,,SCT020,0.00,VWS V14.01,2013-09-17 10:03:00,
2013-09-17 06:04:00,77.4,72.9,29.87,East,96,0.0,1.0,86,0.00,,SCT020,0.00,VWS V14.01,2013-09-17 10:04:00,
2013-09-17 06:06:00,77.2,72.7,29.87,East,96,0.0,0.0,86,0.00,,SCT020,0.00,VWS V14.01,2013-09-17 10:06:00,
2013-09-17 06:08:00,77.2,72.7,29.87,East,96,0.0,0.0,86,0.00,,SCT020,0.00,VWS V14.01,2013-09-17 10:08:00,
2013-09-17 06:10:00,77.2,72.7,29.87,East,96,0.0,1.0,86,0.00,,SCT020,0.00,VWS V14.01,2013-09-17 10:10:00,
2013-09-17 06:11:00,77.2,72.7,29.87,East,96,1.0,1.0,86,0.00,,SCT020,0.00,VWS V14.01,2013-09-17 10:11:00,
2013-09-17 06:12:00,77.2,72.7,29.87,East,96,0.0,1.0,86,0.00,,SCT020,0.00,VWS V14.01,2013-09-17 10:12:00,
2013-09-17 06:13:00,77.2,72.7,29.87,East,96,0.0,0.0,86,0.00,,SCT020,0.00,VWS V14.01,2013-09-17 10:13:00,
2013-09-17 06:17:00,77.2,72.7,29.88,East,96,0.0,1.0,86,0.00,,SCT020,0.00,VWS V14.01,2013-09-17 10:17:00,
2013-09-17 06:19:00,77.2,72.7,29.88,East,96,0.0,0.0,86,0.00,,SCT020,0.00,VWS V14.01,2013-09-17 10:19:00,
2013-09-17 06:21:00,77.2,72.7,29.88,East,96,0.0,1.0,86,0.00,,SCT020,0.00,VWS V14.01,2013-09-17 10:21:00,
2013-09-17 06:22:00,77.2,72.7,29.88,East,96,1.0,1.0,86,0.00,,SCT020,0.00,VWS V14.01,2013-09-17 10:22:00,
2013-09-17 06:24:00,77.2,72.7,29.88,East,96,0.0,1.0,86,0.00,,SCT020,0.00,VWS V14.01,2013-09-17 10:24:00,
2013-09-17 06:25:00,77.2,72.7,29.88,East,96,1.0,1.0,86,0.00,,SCT020,0.00,VWS V14.01,2013-09-17 10:25:00,
2013-09-17 06:27:00,77.2,72.7,29.88,East,96,0.0,1.0,86,0.00,,SCT020,0.00,VWS V14.01,2013-09-17 10:27:00,
2013-09-17 06:28:00,77.2,72.7,29.88,East,96,0.0,1.0,86,0.00,,SCT020,0.00,VWS V14.01,2013-09-17 10:28:00,
2013-09-17 06:31:00,77.2,72.7,29.88,East,96,0.0,1.0,86,0.00,,SCT020,0.00,VWS V14.01,2013-09-17 10:31:00,
2013-09-17 06:32:00,77.2,72.7,29.88,East,96,0.0,1.0,86,0.00,,SCT020,0.00,VWS V14.01,2013-09-17 10:32:00,
2013-09-17 06:33:00,77.2,72.7,29.88,East,96,0.0,1.0,86,0.00,,SCT020,0.00,VWS V14.01,2013-09-17 10:33:00,
2013-09-17 06:34:00,77.2,72.7,29.88,East,96,0.0,0.0,86,0.00,,SCT020,0.00,VWS V14.01,2013-09-17 10:34:00,
2013-09-17 06:36:00,77.2,72.7,29.88,East,96,0.0,1.0,86,0.00,,SCT020,0.00,VWS V14.01,2013-09-17 10:36:00,
2013-09-17 06:37:00,77.2,72.7,29.88,East,96,0.0,1.0,86,0.00,,SCT020,0.00,VWS V14.01,2013-09-17 10:37:00,
2013-09-17 06:39:00,77.2,72.7,29.88,East,96,0.0,1.0,86,0.00,,SCT020,0.00,VWS V14.01,2013-09-17 10:39:00,
2013-09-17 06:40:00,77.4,72.9,29.88,East,96,1.0,1.0,86,0.00,,SCT020,0.00,VWS V14.01,2013-09-17 10:40:00,
2013-09-17 06:41:00,77.4,72.9,29.88,East,96,1.0,2.0,86,0.00,,SCT020,0.00,VWS V14.01,2013-09-17 10:41:00,
2013-09-17 06:43:00,77.4,72.9,29.88,East,96,1.0,1.0,86,0.00,,SCT020,0.00,VWS V14.01,2013-09-17 10:43:00,
2013-09-17 06:44:00,77.4,72.9,29.88,East,96,1.0,2.0,86,0.00,,SCT020,0.00,VWS V14.01,2013-09-17 10:44:00,
2013-09-17 06:45:00,77.4,73.2,29.88,East,96,1.0,1.0,87,0.00,,SCT020,0.00,VWS V14.01,2013-09-17 10:45:00,
2013-09-17 06:46:00,77.4,73.2,29.88,East,96,1.0,2.0,87,0.00,,SCT020,0.00,VWS V14.01,2013-09-17 10:46:00,
2013-09-17 06:50:00,77.6,73.4,29.88,West,277,1.0,1.0,87,0.00,,SCT020,0.00,VWS V14.01,2013-09-17 10:50:00,
2013-09-17 06:51:00,77.6,73.4,29.88,West,277,0.0,2.0,87,0.00,,SCT020,0.00,VWS V14.01,2013-09-17 10:51:00,
2013-09-17 06:54:00,77.6,73.4,29.88,West,277,1.0,2.0,87,0.00,,SCT020,0.00,VWS V14.01,2013-09-17 10:54:00,
2013-09-17 06:55:00,77.6,73.4,29.88,West,277,0.0,1.0,87,0.00,,SCT020,0.00,VWS V14.01,2013-09-17 10:55:00,
2013-09-17 06:57:00,77.7,73.5,29.88,West,278,2.0,2.0,87,0.00,,SCT020,0.00,VWS V14.01,2013-09-17 10:57:00,
2013-09-17 06:59:00,77.7,73.5,29.88,West,278,0.0,1.0,87,0.00,,SCT020,0.00,VWS V14.01,2013-09-17 10:59:00,
2013-09-17 07:03:00,77.7,73.5,29.88,West,278,0.0,1.0,87,0.00,,SCT020,0.00,VWS V14.01,2013-09-17 11:03:00,
2013-09-17 07:04:00,77.9,73.7,29.88,West,278,0.0,0.0,87,0.00,,SCT020,0.00,VWS V14.01,2013-09-17 11:04:00,
2013-09-17 07:05:00,77.9,74.1,29.88,West,278,1.0,1.0,88,0.00,,SCT020,0.00,VWS V14.01,2013-09-17 11:05:00,
2013-09-17 07:07:00,77.9,74.1,29.88,West,278,0.0,0.0,88,0.00,,SCT020,0.00,VWS V14.01,2013-09-17 11:07:00,
2013-09-17 07:08:00,77.9,74.1,29.88,West,278,0.0,0.0,88,0.00,,SCT020,0.00,VWS V14.01,2013-09-17 11:08:00,
2013-09-17 07:12:00,77.9,74.1,29.88,West,278,0.0,0.0,88,0.00,,SCT020,0.00,VWS V14.01,2013-09-17 11:12:00,
2013-09-17 07:14:00,77.9,74.1,29.88,West,278,0.0,0.0,88,0.00,,SCT020,0.00,VWS V14.01,2013-09-17 11:14:00,
2013-09-17 07:16:00,77.9,74.1,29.89,West,278,0.0,0.0,88,0.00,,SCT020,0.00,VWS V14.01,2013-09-17 11:16:00,
2013-09-17 07:19:00,77.7,73.9,29.89,West,278,0.0,1.0,88,0.00,,SCT020,0.00,VWS V14.01,2013-09-17 11:19:00,
2013-09-17 07:20:00,77.7,73.9,29.89,NNW,329,0.0,2.0,88,0.00,,SCT020,0.00,VWS V14.01,2013-09-17 11:20:00,
2013-09-17 07:23:00,77.7,73.9,29.89,NNW,332,0.0,2.0,88,0.00,,SCT020,0.00,VWS V14.01,2013-09-17 11:23:00,
2013-09-17 07:24:00,77.7,73.9,29.89,NNW,335,1.0,2.0,88,0.00,,SCT020,0.00,VWS V14.01,2013-09-17 11:24:00,
2013-09-17 07:25:00,77.7,73.9,29.89,NNW,335,0.0,1.0,88,0.00,,SCT020,0.00,VWS V14.01,2013-09-17 11:25:00,
2013-09-17 07:28:00,77.7,73.9,29.89,North,349,1.0,6.0,88,0.00,,SCT020,0.00,VWS V14.01,2013-09-17 11:28:00,
2013-09-17 07:29:00,77.7,73.9,29.89,North,349,1.0,1.0,88,0.00,,SCT020,0.00,VWS V14.01,2013-09-17 11:29:00,
2013-09-17 07:30:00,77.7,73.9,29.89,North,349,1.0,2.0,88,0.00,,SCT020,0.00,VWS V14.01,2013-09-17 11:30:00,
2013-09-17 07:33:00,77.7,73.9,29.89,North,349,1.0,2.0,88,0.00,,SCT020,0.00,VWS V14.01,2013-09-17 11:33:00,
2013-09-17 07:34:00,77.7,73.9,29.89,North,349,0.0,1.0,88,0.00,,SCT020,0.00,VWS V14.01,2013-09-17 11:34:00,
2013-09-17 07:35:00,77.7,73.9,29.89,North,349,0.0,1.0,88,0.00,,SCT020,0.00,VWS V14.01,2013-09-17 11:35:00,
2013-09-17 07:39:00,77.7,73.9,29.89,North,350,0.0,0.0,88,0.00,,SCT020,0.00,VWS V14.01,2013-09-17 11:39:00,
2013-09-17 07:40:00,77.9,74.1,29.89,North,350,1.0,1.0,88,0.00,,SCT020,0.00,VWS V14.01,2013-09-17 11:40:00,
2013-09-17 07:41:00,77.9,74.1,29.89,North,350,1.0,1.0,88,0.00,,SCT020,0.00,VWS V14.01,2013-09-17 11:41:00,
2013-09-17 07:44:00,77.9,74.1,29.89,North,350,0.0,0.0,88,0.00,,SCT020,0.00,VWS V14.01,2013-09-17 11:44:00,
2013-09-17 07:45:00,77.9,74.1,29.89,North,350,0.0,1.0,88,0.00,,SCT020,0.00,VWS V14.01,2013-09-17 11:45:00,
2013-09-17 07:48:00,77.9,74.1,29.89,North,350,0.0,0.0,88,0.00,,SCT020,0.00,VWS V14.01,2013-09-17 11:48:00,
2013-09-17 07:49:00,77.9,74.1,29.89,North,350,0.0,0.0,88,0.00,,SCT020,0.00,VWS V14.01,2013-09-17 11:49:00,
2013-09-17 07:50:00,77.9,74.1,29.89,North,350,0.0,0.0,88,0.00,,SCT020,0.00,VWS V14.01,2013-09-17 11:50:00,
2013-09-17 07:51:00,77.9,74.1,29.89,North,350,0.0,0.0,88,0.00,,SCT020,0.00,VWS V14.01,2013-09-17 11:51:00,
2013-09-17 07:52:00,77.9,74.1,29.89,North,350,0.0,0.0,88,0.00,,SCT020,0.00,VWS V14.01,2013-09-17 11:52:00,
2013-09-17 07:54:00,77.9,74.1,29.89,North,6,4.0,4.0,88,0.00,,SCT020,0.00,VWS V14.01,2013-09-17 11:54:00,
2013-09-17 07:55:00,78.1,74.3,29.89,North,3,1.0,4.0,88,0.00,,SCT020,0.00,VWS V14.01,2013-09-17 11:55:00,
2013-09-17 07:57:00,78.1,74.3,29.89,North,4,1.0,2.0,88,0.00,,SCT020,0.00,VWS V14.01,2013-09-17 11:57:00,
2013-09-17 07:58:00,78.1,74.3,29.89,North,4,1.0,1.0,88,0.00,,SCT020,0.00,VWS V14.01,2013-09-17 11:58:00,
2013-09-17 08:01:00,78.1,74.3,29.90,North,3,1.0,2.0,88,0.00,,SCT020,0.00,VWS V14.01,2013-09-17 12:01:00,
2013-09-17 08:03:00,78.3,74.5,29.90,North,3,0.0,1.0,88,0.00,,SCT020,0.00,VWS V14.01,2013-09-17 12:03:00,
2013-09-17 08:08:00,78.3,74.5,29.90,North,0,0.0,2.0,88,0.00,,SCT020,0.00,VWS V14.01,2013-09-17 12:08:00,
2013-09-17 08:09:00,78.5,74.7,29.90,North,0,0.0,1.0,88,0.00,,SCT020,0.00,VWS V14.01,2013-09-17 12:09:00,
2013-09-17 08:14:00,78.5,74.3,29.90,North,0,0.0,0.0,87,0.00,,SCT020,0.00,VWS V14.01,2013-09-17 12:14:00,
2013-09-17 08:16:00,78.5,74.3,29.90,North,0,0.0,0.0,87,0.00,,SCT020,0.00,VWS V14.01,2013-09-17 12:16:00,
2013-09-17 08:17:00,78.5,74.3,29.90,North,0,0.0,0.0,87,0.00,,SCT020,0.00,VWS V14.01,2013-09-17 12:17:00,
2013-09-17 08:20:00,78.5,74.3,29.90,North,0,0.0,0.0,87,0.00,,SCT020,0.00,VWS V14.01,2013-09-17 12:20:00,
2013-09-17 08:22:00,78.5,74.3,29.90,North,0,1.0,1.0,87,0.00,,SCT020,0.00,VWS V14.01,2013-09-17 12:22:00,
2013-09-17 08:25:00,78.5,74.0,29.90,North,0,0.0,0.0,86,0.00,,SCT020,0.00,VWS V14.01,2013-09-17 12:25:00,
2013-09-17 08:26:00,78.5,74.0,29.90,North,0,0.0,0.0,86,0.00,,SCT020,0.00,VWS V14.01,2013-09-17 12:26:00,
2013-09-17 08:27:00,78.5,74.0,29.90,North,0,0.0,0.0,86,0.00,,SCT020,0.00,VWS V14.01,2013-09-17 12:27:00,
2013-09-17 08:29:00,78.6,74.1,29.90,North,0,0.0,0.0,86,0.00,,SCT020,0.00,VWS V14.01,2013-09-17 12:29:00,
2013-09-17 08:33:00,78.6,74.1,29.91,North,0,0.0,0.0,86,0.01,,SCT020,0.01,VWS V14.01,2013-09-17 12:33:00,
2013-09-17 08:34:00,78.6,74.1,29.91,North,0,0.0,0.0,86,0.01,,SCT020,0.01,VWS V14.01,2013-09-17 12:34:00,
2013-09-17 08:36:00,78.8,74.3,29.91,North,0,0.0,0.0,86,0.01,,SCT020,0.01,VWS V14.01,2013-09-17 12:36:00,
2013-09-17 08:38:00,78.8,74.3,29.91,North,0,0.0,0.0,86,0.01,,SCT020,0.01,VWS V14.01,2013-09-17 12:38:00,
2013-09-17 08:39:00,78.8,74.3,29.91,North,0,0.0,0.0,86,0.01,,SCT020,0.01,VWS V14.01,2013-09-17 12:39:00,
2013-09-17 08:40:00,79.0,74.5,29.91,North,0,0.0,0.0,86,0.01,,SCT020,0.01,VWS V14.01,2013-09-17 12:40:00,
2013-09-17 08:41:00,79.0,74.5,29.91,North,0,0.0,0.0,86,0.01,,SCT020,0.01,VWS V14.01,2013-09-17 12:41:00,
2013-09-17 08:42:00,79.0,74.5,29.91,North,0,0.0,0.0,86,0.01,,SCT020,0.01,VWS V14.01,2013-09-17 12:42:00,
2013-09-17 08:45:00,78.8,73.9,29.91,North,0,0.0,0.0,85,0.01,,SCT020,0.01,VWS V14.01,2013-09-17 12:45:00,
2013-09-17 08:46:00,78.6,73.4,29.91,North,0,0.0,0.0,84,0.01,,SCT020,0.01,VWS V14.01,2013-09-17 12:46:00,
2013-09-17 08:48:00,78.6,73.4,29.91,North,0,0.0,0.0,84,0.01,,SCT020,0.01,VWS V14.01,2013-09-17 12:48:00,
2013-09-17 08:50:00,78.8,73.6,29.91,North,0,0.0,0.0,84,0.01,,SCT020,0.01,VWS V14.01,2013-09-17 12:50:00,
2013-09-17 08:51:00,78.8,73.6,29.91,North,0,0.0,0.0,84,0.01,,SCT020,0.01,VWS V14.01,2013-09-17 12:51:00,
2013-09-17 08:52:00,78.8,73.6,29.91,North,0,0.0,0.0,84,0.01,,SCT020,0.01,VWS V14.01,2013-09-17 12:52:00,
2013-09-17 08:56:00,78.8,73.6,29.91,North,0,0.0,0.0,84,0.01,,SCT020,0.01,VWS V14.01,2013-09-17 12:56:00,
2013-09-17 08:57:00,79.0,73.8,29.91,North,0,0.0,0.0,84,0.01,,SCT020,0.01,VWS V14.01,2013-09-17 12:57:00,
2013-09-17 09:00:00,79.0,73.8,29.92,North,0,0.0,0.0,84,0.01,,SCT020,0.01,VWS V14.01,2013-09-17 13:00:00,
2013-09-17 09:02:00,79.0,73.8,29.92,North,0,0.0,0.0,84,0.01,,SCT020,0.01,VWS V14.01,2013-09-17 13:02:00,
2013-09-17 09:03:00,79.0,73.8,29.92,SSW,212,0.0,1.0,84,0.01,,SCT020,0.01,VWS V14.01,2013-09-17 13:03:00,
2013-09-17 09:07:00,79.0,73.8,29.92,NNW,332,0.0,1.0,84,0.01,,SCT020,0.01,VWS V14.01,2013-09-17 13:07:00,
2013-09-17 09:09:00,79.0,73.8,29.92,NNW,332,0.0,1.0,84,0.01,,SCT020,0.01,VWS V14.01,2013-09-17 13:09:00,
2013-09-17 09:11:00,79.2,73.9,29.92,NNW,332,0.0,1.0,84,0.01,,SCT020,0.01,VWS V14.01,2013-09-17 13:11:00,
2013-09-17 09:12:00,79.2,73.9,29.92,NNW,332,1.0,1.0,84,0.01,,SCT020,0.01,VWS V14.01,2013-09-17 13:12:00,
2013-09-17 09:14:00,79.2,74.3,29.92,ESE,120,6.0,6.0,85,0.01,,SCT020,0.01,VWS V14.01,2013-09-17 13:14:00,
2013-09-17 09:15:00,79.2,74.3,29.93,East,88,2.0,6.0,85,0.01,,SCT020,0.01,VWS V14.01,2013-09-17 13:15:00,
2013-09-17 09:16:00,79.0,74.1,29.93,ESE,106,1.0,6.0,85,0.01,,SCT020,0.01,VWS V14.01,2013-09-17 13:16:00,
2013-09-17 09:17:00,79.0,73.8,29.93,ESE,106,1.0,2.0,84,0.01,,SCT020,0.01,VWS V14.01,2013-09-17 13:17:00,
2013-09-17 09:19:00,78.8,73.6,29.93,ESE,102,2.0,2.0,84,0.01,,SCT020,0.01,VWS V14.01,2013-09-17 13:19:00,
2013-09-17 09:20:00,78.6,73.4,29.93,East,96,2.0,4.0,84,0.01,,SCT020,0.01,VWS V14.01,2013-09-17 13:20:00,
2013-09-17 09:21:00,78.5,72.9,29.93,East,82,1.0,4.0,83,0.01,,SCT020,0.01,VWS V14.01,2013-09-17 13:21:00,
2013-09-17 09:22:00,78.3,72.4,29.93,SE,127,2.0,4.0,82,0.01,,SCT020,0.01,VWS V14.01,2013-09-17 13:22:00,
2013-09-17 09:25:00,77.9,71.6,29.93,SE,124,1.0,2.0,81,0.01,,SCT020,0.01,VWS V14.01,2013-09-17 13:25:00,
2013-09-17 09:26:00,77.7,71.0,29.93,ENE,62,4.0,6.0,80,0.01,,SCT020,0.01,VWS V14.01,2013-09-17 13:26:00,
2013-09-17 09:27:00,77.7,70.7,29.93,ESE,112,2.0,7.0,79,0.01,,SCT020,0.01,VWS V14.01,2013-09-17 13:27:00,
2013-09-17 09:29:00,77.6,70.6,29.93,SE,144,1.0,6.0,79,0.01,,SCT020,0.01,VWS V14.01,2013-09-17 13:29:00,
2013-09-17 09:31:00,77.4,70.4,29.94,SSE,160,2.0,4.0,79,0.01,,SCT020,0.01,VWS V14.01,2013-09-17 13:31:00,
2013-09-17 09:32:00,77.4,70.4,29.94,ESE,107,1.0,4.0,79,0.02,,SCT020,0.02,VWS V14.01,2013-09-17 13:32:00,
2013-09-17 09:33:00,77.2,70.2,29.94,ESE,107,1.0,2.0,79,0.01,,SCT020,0.02,VWS V14.01,2013-09-17 13:33:00,
2013-09-17 09:37:00,76.8,70.5,29.94,NE,56,2.0,4.0,81,0.03,,SCT020,0.04,VWS V14.01,2013-09-17 13:37:00,
2013-09-17 09:40:00,76.5,70.6,29.94,ESE,110,0.0,2.0,82,0.03,,SCT020,0.04,VWS V14.01,2013-09-17 13:40:00,
2013-09-17 09:42:00,76.3,70.8,29.94,ESE,110,0.0,1.0,83,0.03,,SCT020,0.04,VWS V14.01,2013-09-17 13:42:00,
2013-09-17 09:45:00,76.1,70.9,29.94,ESE,110,0.0,0.0,84,0.03,,SCT020,0.04,VWS V14.01,2013-09-17 13:45:00,
2013-09-17 09:47:00,76.0,70.8,29.94,ESE,120,0.0,2.0,84,0.03,,SCT020,0.04,VWS V14.01,2013-09-17 13:47:00,
2013-09-17 09:50:00,76.0,70.8,29.94,ESE,120,0.0,0.0,84,0.03,,SCT020,0.04,VWS V14.01,2013-09-17 13:50:00,
2013-09-17 09:51:00,76.0,71.2,29.94,ESE,120,0.0,0.0,85,0.03,,SCT020,0.04,VWS V14.01,2013-09-17 13:51:00,
2013-09-17 09:52:00,76.0,71.2,29.94,ESE,120,0.0,1.0,85,0.03,,SCT020,0.04,VWS V14.01,2013-09-17 13:52:00,
2013-09-17 09:53:00,75.8,71.0,29.94,ESE,120,0.0,0.0,85,0.03,,SCT020,0.04,VWS V14.01,2013-09-17 13:53:00,
2013-09-17 09:57:00,75.8,71.0,29.94,ESE,120,0.0,0.0,85,0.03,,SCT020,0.04,VWS V14.01,2013-09-17 13:57:00,
2013-09-17 09:58:00,75.8,71.0,29.94,ESE,120,0.0,0.0,85,0.03,,SCT020,0.04,VWS V14.01,2013-09-17 13:58:00,
2013-09-17 10:03:00,75.6,71.1,29.94,ESE,120,0.0,1.0,86,0.03,,SCT020,0.04,VWS V14.01,2013-09-17 14:03:00,
2013-09-17 10:04:00,75.6,71.1,29.94,ESE,120,0.0,0.0,86,0.03,,SCT020,0.04,VWS V14.01,2013-09-17 14:04:00,
2013-09-17 10:05:00,75.6,71.1,29.94,ESE,120,1.0,1.0,86,0.03,,SCT020,0.04,VWS V14.01,2013-09-17 14:05:00,
2013-09-17 10:09:00,75.6,71.5,29.94,ESE,120,1.0,1.0,87,0.03,,SCT020,0.04,VWS V14.01,2013-09-17 14:09:00,
2013-09-17 10:10:00,75.6,71.5,29.94,ESE,120,0.0,1.0,87,0.03,,SCT020,0.04,VWS V14.01,2013-09-17 14:10:00,
2013-09-17 10:11:00,75.6,71.5,29.94,ESE,120,1.0,1.0,87,0.03,,SCT020,0.04,VWS V14.01,2013-09-17 14:11:00,
2013-09-17 10:15:00,75.6,71.5,29.94,ESE,120,0.0,0.0,87,0.03,,SCT020,0.04,VWS V14.01,2013-09-17 14:15:00,
2013-09-17 10:17:00,75.6,71.5,29.94,ESE,120,0.0,1.0,87,0.03,,SCT020,0.04,VWS V14.01,2013-09-17 14:17:00,
2013-09-17 10:20:00,75.6,71.5,29.94,ESE,120,0.0,0.0,87,0.03,,SCT020,0.04,VWS V14.01,2013-09-17 14:20:00,
2013-09-17 10:22:00,75.6,71.5,29.94,ESE,120,1.0,1.0,87,0.03,,SCT020,0.04,VWS V14.01,2013-09-17 14:22:00,
2013-09-17 10:23:00,75.6,71.5,29.94,ESE,120,0.0,1.0,87,0.03,,SCT020,0.04,VWS V14.01,2013-09-17 14:23:00,
2013-09-17 10:25:00,75.6,71.5,29.94,ESE,120,0.0,0.0,87,0.03,,SCT020,0.04,VWS V14.01,2013-09-17 14:25:00,
2013-09-17 10:26:00,75.8,71.7,29.94,ESE,120,0.0,0.0,87,0.03,,SCT020,0.04,VWS V14.01,2013-09-17 14:26:00,
2013-09-17 10:29:00,76.0,71.9,29.94,ESE,120,0.0,1.0,87,0.03,,SCT020,0.04,VWS V14.01,2013-09-17 14:29:00,
2013-09-17 10:30:00,76.0,71.9,29.93,ESE,120,0.0,1.0,87,0.03,,SCT020,0.04,VWS V14.01,2013-09-17 14:30:00,
2013-09-17 10:32:00,76.1,71.9,29.93,ESE,120,0.0,1.0,87,0.03,,SCT020,0.04,VWS V14.01,2013-09-17 14:32:00,
2013-09-17 10:33:00,76.1,71.9,29.93,ESE,107,2.0,2.0,87,0.02,,SCT020,0.04,VWS V14.01,2013-09-17 14:33:00,
2013-09-17 10:34:00,76.3,72.2,29.93,ESE,107,1.0,2.0,87,0.02,,SCT020,0.04,VWS V14.01,2013-09-17 14:34:00,
2013-09-17 10:39:00,76.5,72.3,29.93,ESE,107,0.0,1.0,87,0.00,,SCT020,0.04,VWS V14.01,2013-09-17 14:39:00,
2013-09-17 10:40:00,76.5,72.3,29.93,ESE,107,0.0,0.0,87,0.00,,SCT020,0.04,VWS V14.01,2013-09-17 14:40:00,
2013-09-17 10:42:00,76.7,72.5,29.93,ESE,107,0.0,0.0,87,0.00,,SCT020,0.04,VWS V14.01,2013-09-17 14:42:00,
2013-09-17 10:45:00,76.8,72.6,29.94,ESE,107,0.0,1.0,87,0.00,,SCT020,0.04,VWS V14.01,2013-09-17 14:45:00,
2013-09-17 10:46:00,76.8,72.6,29.94,ESE,107,0.0,1.0,87,0.00,,SCT020,0.04,VWS V14.01,2013-09-17 14:46:00,
2013-09-17 10:50:00,77.2,73.0,29.94,ESE,107,0.0,1.0,87,0.00,,SCT020,0.04,VWS V14.01,2013-09-17 14:50:00,
2013-09-17 10:51:00,77.2,73.0,29.94,ESE,107,0.0,0.0,87,0.00,,SCT020,0.04,VWS V14.01,2013-09-17 14:51:00,
2013-09-17 10:52:00,77.4,73.2,29.94,ESE,107,0.0,0.0,87,0.00,,SCT020,0.04,VWS V14.01,2013-09-17 14:52:00,
2013-09-17 10:55:00,77.6,73.4,29.94,ESE,107,0.0,2.0,87,0.00,,SCT020,0.04,VWS V14.01,2013-09-17 14:55:00,
2013-09-17 10:59:00,77.9,73.4,29.94,ESE,107,0.0,1.0,86,0.00,,SCT020,0.04,VWS V14.01,2013-09-17 14:59:00,
2013-09-17 11:01:00,78.1,73.6,29.94,ESE,107,1.0,2.0,86,0.00,,SCT020,0.04,VWS V14.01,2013-09-17 15:01:00,
2013-09-17 11:03:00,77.9,73.0,29.94,ESE,106,1.0,2.0,85,0.00,,SCT020,0.04,VWS V14.01,2013-09-17 15:03:00,
2013-09-17 11:04:00,78.1,73.2,29.94,ESE,106,0.0,2.0,85,0.00,,SCT020,0.04,VWS V14.01,2013-09-17 15:04:00,
2013-09-17 11:07:00,78.1,73.2,29.94,ESE,106,0.0,1.0,85,0.00,,SCT020,0.04,VWS V14.01,2013-09-17 15:07:00,
2013-09-17 11:10:00,78.8,73.9,29.94,ESE,106,0.0,1.0,85,0.00,,SCT020,0.04,VWS V14.01,2013-09-17 15:10:00,
2013-09-17 11:11:00,79.0,74.1,29.94,ESE,106,0.0,1.0,85,0.00,,SCT020,0.04,VWS V14.01,2013-09-17 15:11:00,
2013-09-17 11:14:00,79.4,73.8,29.94,ESE,106,0.0,0.0,83,0.00,,SCT020,0.04,VWS V14.01,2013-09-17 15:14:00,
2013-09-17 11:16:00,79.8,74.2,29.94,ESE,104,0.0,2.0,83,0.00,,SCT020,0.04,VWS V14.01,2013-09-17 15:16:00,
2013-09-17 11:17:00,79.9,74.3,29.94,ESE,104,0.0,1.0,83,0.00,,SCT020,0.04,VWS V14.01,2013-09-17 15:17:00,
2013-09-17 11:18:00,80.1,74.5,29.94,ESE,104,0.0,1.0,83,0.00,,SCT020,0.04,VWS V14.01,2013-09-17 15:18:00,
2013-09-17 11:21:00,80.7,74.3,29.94,East,90,0.0,4.0,81,0.00,,SCT020,0.04,VWS V14.01,2013-09-17 15:21:00,
2013-09-17 11:22:00,80.9,74.2,29.94,East,90,1.0,1.0,80,0.00,,SCT020,0.04,VWS V14.01,2013-09-17 15:22:00,
2013-09-17 11:23:00,81.1,74.0,29.94,East,96,2.0,2.0,79,0.00,,SCT020,0.04,VWS V14.01,2013-09-17 15:23:00,
2013-09-17 11:24:00,81.2,74.1,29.94,ESE,107,2.0,4.0,79,0.00,,SCT020,0.04,VWS V14.01,2013-09-17 15:24:00,
2013-09-17 11:25:00,81.4,74.3,29.94,ESE,107,1.0,2.0,79,0.00,,SCT020,0.04,VWS V14.01,2013-09-17 15:25:00,
2013-09-17 11:29:00,82.2,73.9,29.94,East,100,2.0,6.0,76,0.00,,SCT020,0.04,VWS V14.01,2013-09-17 15:29:00,
2013-09-17 11:30:00,82.4,74.1,29.94,NE,56,2.0,4.0,76,0.00,,SCT020,0.04,VWS V14.01,2013-09-17 15:30:00,
2013-09-17 11:32:00,82.8,74.1,29.94,ENE,61,2.0,2.0,75,0.00,,SCT020,0.04,VWS V14.01,2013-09-17 15:32:00,
2013-09-17 11:35:00,83.2,74.1,29.94,East,96,2.0,2.0,74,0.00,,SCT020,0.04,VWS V14.01,2013-09-17 15:35:00,
2013-09-17 11:37:00,83.4,73.8,29.94,ENE,76,4.0,6.0,73,0.00,,SCT020,0.04,VWS V14.01,2013-09-17 15:37:00,
2013-09-17 11:38:00,83.4,73.4,29.94,ENE,68,4.0,7.0,72,0.00,,SCT020,0.04,VWS V14.01,2013-09-17 15:38:00,
2013-09-17 11:39:00,83.4,73.4,29.94,East,92,2.0,6.0,72,0.00,,SCT020,0.04,VWS V14.01,2013-09-17 15:39:00,
2013-09-17 11:41:00,83.4,73.4,29.94,ENE,78,4.0,6.0,72,0.00,,SCT020,0.04,VWS V14.01,2013-09-17 15:41:00,
2013-09-17 11:42:00,83.4,73.4,29.94,NE,37,2.0,6.0,72,0.00,,SCT020,0.04,VWS V14.01,2013-09-17 15:42:00,
2013-09-17 11:45:00,83.8,73.8,29.94,ESE,113,2.0,6.0,72,0.00,,SCT020,0.04,VWS V14.01,2013-09-17 15:45:00,
2013-09-17 11:46:00,83.8,73.8,29.94,East,97,1.0,4.0,72,0.00,,SCT020,0.04,VWS V14.01,2013-09-17 15:46:00,
2013-09-17 11:47:00,84.0,73.2,29.94,East,97,1.0,2.0,70,0.00,,SCT020,0.04,VWS V14.01,2013-09-17 15:47:00,
2013-09-17 11:48:00,84.1,73.3,29.94,East,83,2.0,4.0,70,0.00,,SCT020,0.04,VWS V14.01,2013-09-17 15:48:00,
2013-09-17 11:52:00,84.7,73.8,29.94,ENE,64,0.0,2.0,70,0.00,,SCT020,0.04,VWS V14.01,2013-09-17 15:52:00,
2013-09-17 11:54:00,85.1,74.2,29.94,North,0,1.0,4.0,70,0.00,,SCT020,0.04,VWS V14.01,2013-09-17 15:54:00,
2013-09-17 11:57:00,85.5,74.6,29.94,NW,320,1.0,4.0,70,0.00,,SCT020,0.04,VWS V14.01,2013-09-17 15:57:00,
2013-09-17 11:59:00,85.7,74.4,29.94,NNW,340,1.0,6.0,69,0.00,,SCT020,0.04,VWS V14.01,2013-09-17 15:59:00,
2013-09-17 12:00:00,85.9,74.6,29.95,North,0,2.0,6.0,69,0.00,,SCT020,0.04,VWS V14.01,2013-09-17 16:00:00,
2013-09-17 12:03:00,85.9,73.7,29.95,North,0,6.0,6.0,67,0.00,,SCT020,0.04,VWS V14.01,2013-09-17 16:03:00,
2013-09-17 12:05:00,86.1,73.9,29.95,NNW,342,1.0,4.0,67,0.00,,SCT020,0.04,VWS V14.01,2013-09-17 16:05:00,
2013-09-17 12:06:00,86.1,73.9,29.95,North,356,1.0,2.0,67,0.00,,SCT020,0.04,VWS V14.01,2013-09-17 16:06:00,
2013-09-17 12:07:00,86.1,73.9,29.95,NNE,16,4.0,7.0,67,0.00,,SCT020,0.04,VWS V14.01,2013-09-17 16:07:00,
2013-09-17 12:11:00,85.9,73.7,29.95,NE,55,7.0,7.0,67,0.00,,SCT020,0.04,VWS V14.01,2013-09-17 16:11:00,
2013-09-17 12:12:00,85.9,73.7,29.95,NNE,21,2.0,7.0,67,0.00,,SCT020,0.04,VWS V14.01,2013-09-17 16:12:00,
2013-09-17 12:13:00,85.9,73.7,29.95,NNE,28,0.0,2.0,67,0.00,,SCT020,0.04,VWS V14.01,2013-09-17 16:13:00,
2013-09-17 12:16:00,85.7,73.5,29.94,NNE,24,2.0,8.0,67,0.00,,SCT020,0.04,VWS V14.01,2013-09-17 16:16:00,
2013-09-17 12:18:00,85.3,73.1,29.94,North,359,2.0,4.0,67,0.00,,SCT020,0.04,VWS V14.01,2013-09-17 16:18:00,
2013-09-17 12:19:00,85.3,73.1,29.94,North,7,6.0,7.0,67,0.00,,SCT020,0.04,VWS V14.01,2013-09-17 16:19:00,
2013-09-17 12:22:00,84.9,73.2,29.94,North,0,1.0,4.0,68,0.00,,SCT020,0.04,VWS V14.01,2013-09-17 16:22:00,
2013-09-17 12:24:00,84.9,73.6,29.94,NE,42,4.0,6.0,69,0.00,,SCT020,0.04,VWS V14.01,2013-09-17 16:24:00,
2013-09-17 12:25:00,84.9,73.6,29.94,NNE,27,2.0,6.0,69,0.00,,SCT020,0.04,VWS V14.01,2013-09-17 16:25:00,
2013-09-17 12:29:00,84.7,73.4,29.94,NW,316,1.0,2.0,69,0.00,,SCT020,0.04,VWS V14.01,2013-09-17 16:29:00,
2013-09-17 12:30:00,84.7,73.8,29.94,NE,42,2.0,6.0,70,0.00,,SCT020,0.04,VWS V14.01,2013-09-17 16:30:00,
2013-09-17 12:31:00,84.7,73.8,29.94,NE,41,2.0,4.0,70,0.00,,SCT020,0.04,VWS V14.01,2013-09-17 16:31:00,
2013-09-17 12:35:00,84.7,73.8,29.94,North,7,2.0,6.0,70,0.00,,SCT020,0.04,VWS V14.01,2013-09-17 16:35:00,
2013-09-17 12:36:00,84.5,73.7,29.94,ENE,71,2.0,6.0,70,0.00,,SCT020,0.04,VWS V14.01,2013-09-17 16:36:00,
2013-09-17 12:37:00,84.5,74.1,29.94,NNE,31,6.0,9.0,71,0.00,,SCT020,0.04,VWS V14.01,2013-09-17 16:37:00,
2013-09-17 12:39:00,84.3,73.0,29.94,NNW,343,2.0,4.0,69,0.00,,SCT020,0.04,VWS V14.01,2013-09-17 16:39:00,
2013-09-17 12:43:00,84.0,72.7,29.94,North,353,4.0,6.0,69,0.00,,SCT020,0.04,VWS V14.01,2013-09-17 16:43:00,
2013-09-17 12:46:00,83.8,73.0,29.93,North,8,6.0,9.0,70,0.00,,SCT020,0.04,VWS V14.01,2013-09-17 16:46:00,
2013-09-17 12:49:00,83.8,73.4,29.93,NNE,17,1.0,6.0,71,0.00,,SCT020,0.04,VWS V14.01,2013-09-17 16:49:00,
2013-09-17 12:50:00,83.8,73.4,29.93,North,1,4.0,7.0,71,0.00,,SCT020,0.04,VWS V14.01,2013-09-17 16:50:00,
2013-09-17 12:54:00,83.6,73.6,29.93,NNW,347,2.0,6.0,72,0.00,,SCT020,0.04,VWS V14.01,2013-09-17 16:54:00,
2013-09-17 12:55:00,83.6,73.2,29.93,NNE,27,7.0,7.0,71,0.00,,SCT020,0.04,VWS V14.01,2013-09-17 16:55:00,
2013-09-17 12:57:00,83.6,73.2,29.93,North,359,11.0,11.0,71,0.00,,SCT020,0.04,VWS V14.01,2013-09-17 16:57:00,
2013-09-17 12:59:00,83.4,73.4,29.93,NE,37,0.0,7.0,72,0.00,,SCT020,0.04,VWS V14.01,2013-09-17 16:59:00,
2013-09-17 13:02:00,83.4,73.4,29.92,ENE,71,6.0,6.0,72,0.00,,SCT020,0.04,VWS V14.01,2013-09-17 17:02:00,
2013-09-17 13:03:00,83.4,73.4,29.92,NE,35,6.0,7.0,72,0.00,,SCT020,0.04,VWS V14.01,2013-09-17 17:03:00,
2013-09-17 13:04:00,83.2,73.2,29.92,North,10,7.0,8.0,72,0.00,,SCT020,0.04,VWS V14.01,2013-09-17 17:04:00,
2013-09-17 13:07:00,83.0,73.1,29.92,ENE,65,4.0,8.0,72,0.00,,SCT020,0.04,VWS V14.01,2013-09-17 17:07:00,
2013-09-17 13:09:00,83.0,73.5,29.92,East,88,2.0,4.0,73,0.03,,SCT020,0.07,VWS V14.01,2013-09-17 17:09:00,
2013-09-17 13:11:00,82.4,74.1,29.92,ENE,71,4.0,6.0,76,0.12,,SCT020,0.16,VWS V14.01,2013-09-17 17:11:00,
2013-09-17 13:12:00,81.8,73.9,29.92,ESE,104,2.0,7.0,77,0.16,,SCT020,0.20,VWS V14.01,2013-09-17 17:12:00,
2013-09-17 13:13:00,81.4,73.9,29.92,NE,38,4.0,6.0,78,0.18,,SCT020,0.22,VWS V14.01,2013-09-17 17:13:00,
2013-09-17 13:15:00,80.9,73.4,29.92,ENE,59,8.0,9.0,78,0.19,,SCT020,0.23,VWS V14.01,2013-09-17 17:15:00,
2013-09-17 13:17:00,80.5,73.8,29.92,NE,47,4.0,7.0,80,0.20,,SCT020,0.24,VWS V14.01,2013-09-17 17:17:00,
2013-09-17 13:18:00,80.3,73.9,29.92,ENE,65,2.0,6.0,81,0.20,,SCT020,0.24,VWS V14.01,2013-09-17 17:18:00,
2013-09-17 13:19:00,80.1,74.1,29.92,NNE,27,6.0,7.0,82,0.20,,SCT020,0.24,VWS V14.01,2013-09-17 17:19:00,
2013-09-17 13:24:00,79.9,74.3,29.92,NE,34,6.0,6.0,83,0.20,,SCT020,0.24,VWS V14.01,2013-09-17 17:24:00,
2013-09-17 13:26:00,79.9,75.0,29.92,NE,48,1.0,6.0,85,0.20,,SCT020,0.24,VWS V14.01,2013-09-17 17:26:00,
2013-09-17 13:27:00,79.9,75.0,29.92,ENE,58,2.0,6.0,85,0.20,,SCT020,0.24,VWS V14.01,2013-09-17 17:27:00,
2013-09-17 13:29:00,79.9,75.0,29.92,NE,41,2.0,6.0,85,0.20,,SCT020,0.24,VWS V14.01,2013-09-17 17:29:00,
2013-09-17 13:30:00,79.8,74.9,29.92,ENE,59,2.0,4.0,85,0.20,,SCT020,0.24,VWS V14.01,2013-09-17 17:30:00,
2013-09-17 13:32:00,79.9,75.3,29.92,NE,56,0.0,2.0,86,0.20,,SCT020,0.24,VWS V14.01,2013-09-17 17:32:00,
2013-09-17 13:35:00,79.9,75.3,29.92,NE,55,1.0,2.0,86,0.20,,SCT020,0.24,VWS V14.01,2013-09-17 17:35:00,
2013-09-17 13:36:00,79.9,75.3,29.92,NE,55,1.0,1.0,86,0.20,,SCT020,0.24,VWS V14.01,2013-09-17 17:36:00,
2013-09-17 13:39:00,79.9,75.7,29.92,NNE,27,2.0,4.0,87,0.20,,SCT020,0.24,VWS V14.01,2013-09-17 17:39:00,
2013-09-17 13:42:00,79.9,75.7,29.92,NNE,32,2.0,4.0,87,0.20,,SCT020,0.24,VWS V14.01,2013-09-17 17:42:00,
2013-09-17 13:44:00,79.9,75.7,29.92,ENE,68,0.0,4.0,87,0.20,,SCT020,0.24,VWS V14.01,2013-09-17 17:44:00,
2013-09-17 13:45:00,79.9,75.7,29.91,ENE,68,2.0,2.0,87,0.20,,SCT020,0.24,VWS V14.01,2013-09-17 17:45:00,
2013-09-17 13:46:00,79.9,75.7,29.91,ENE,68,1.0,2.0,87,0.20,,SCT020,0.24,VWS V14.01,2013-09-17 17:46:00,
2013-09-17 13:47:00,79.8,75.6,29.91,ENE,73,4.0,4.0,87,0.20,,SCT020,0.24,VWS V14.01,2013-09-17 17:47:00,
2013-09-17 13:48:00,79.8,75.6,29.91,ENE,72,0.0,4.0,87,0.20,,SCT020,0.24,VWS V14.01,2013-09-17 17:48:00,
2013-09-17 13:51:00,79.8,75.6,29.91,ENE,65,1.0,4.0,87,0.20,,SCT020,0.24,VWS V14.01,2013-09-17 17:51:00,
2013-09-17 13:53:00,79.6,75.4,29.91,ENE,71,2.0,2.0,87,0.20,,SCT020,0.24,VWS V14.01,2013-09-17 17:53:00,
2013-09-17 13:54:00,79.6,75.4,29.91,ENE,71,1.0,2.0,87,0.20,,SCT020,0.24,VWS V14.01,2013-09-17 17:54:00,
2013-09-17 13:56:00,79.6,75.4,29.91,NE,37,2.0,4.0,87,0.20,,SCT020,0.24,VWS V14.01,2013-09-17 17:56:00,
2013-09-17 13:59:00,79.4,75.2,29.91,NE,55,1.0,2.0,87,0.20,,SCT020,0.24,VWS V14.01,2013-09-17 17:59:00,
2013-09-17 14:00:00,79.4,75.2,29.91,NE,55,1.0,2.0,87,0.20,,SCT020,0.24,VWS V14.01,2013-09-17 18:00:00,
2013-09-17 14:04:00,79.4,75.2,29.91,NE,51,1.0,2.0,87,0.20,,SCT020,0.24,VWS V14.01,2013-09-17 18:04:00,
2013-09-17 14:06:00,79.4,75.2,29.91,NNE,31,2.0,4.0,87,0.20,,SCT020,0.24,VWS V14.01,2013-09-17 18:06:00,
2013-09-17 14:09:00,79.4,75.2,29.91,ENE,64,1.0,1.0,87,0.19,,SCT020,0.24,VWS V14.01,2013-09-17 18:09:00,
2013-09-17 14:10:00,79.4,75.2,29.91,ENE,64,2.0,2.0,87,0.17,,SCT020,0.24,VWS V14.01,2013-09-17 18:10:00,
2013-09-17 14:11:00,79.4,75.2,29.91,ENE,73,2.0,2.0,87,0.15,,SCT020,0.24,VWS V14.01,2013-09-17 18:11:00,
2013-09-17 14:13:00,79.4,75.2,29.91,NE,37,1.0,4.0,87,0.04,,SCT020,0.24,VWS V14.01,2013-09-17 18:13:00,
2013-09-17 14:16:00,79.4,75.2,29.90,ENE,58,2.0,2.0,87,0.01,,SCT020,0.24,VWS V14.01,2013-09-17 18:16:00,
2013-09-17 14:17:00,79.4,75.2,29.90,North,0,4.0,4.0,87,0.01,,SCT020,0.24,VWS V14.01,2013-09-17 18:17:00,
2013-09-17 14:18:00,79.4,75.2,29.90,NE,52,6.0,6.0,87,0.00,,SCT020,0.24,VWS V14.01,2013-09-17 18:18:00,
2013-09-17 14:19:00,79.4,75.2,29.90,NE,35,6.0,7.0,87,0.00,,SCT020,0.24,VWS V14.01,2013-09-17 18:19:00,
2013-09-17 14:23:00,79.4,74.8,29.90,ENE,61,0.0,8.0,86,0.00,,SCT020,0.24,VWS V14.01,2013-09-17 18:23:00,
2013-09-17 14:24:00,79.4,74.8,29.90,NNE,31,0.0,4.0,86,0.00,,SCT020,0.24,VWS V14.01,2013-09-17 18:24:00,
2013-09-17 14:27:00,79.2,74.3,29.90,East,97,2.0,7.0,85,0.00,,SCT020,0.24,VWS V14.01,2013-09-17 18:27:00,
2013-09-17 14:28:00,79.2,74.3,29.90,NNE,31,8.0,8.0,85,0.00,,SCT020,0.24,VWS V14.01,2013-09-17 18:28:00,
2013-09-17 14:29:00,79.2,73.9,29.90,North,8,2.0,8.0,84,0.00,,SCT020,0.24,VWS V14.01,2013-09-17 18:29:00,
2013-09-17 14:32:00,79.2,74.3,29.90,ENE,65,1.0,2.0,85,0.00,,SCT020,0.24,VWS V14.01,2013-09-17 18:32:00,
2013-09-17 14:35:00,79.2,74.3,29.90,NE,48,4.0,4.0,85,0.00,,SCT020,0.24,VWS V14.01,2013-09-17 18:35:00,
2013-09-17 14:36:00,79.2,74.3,29.90,ENE,76,4.0,6.0,85,0.00,,SCT020,0.24,VWS V14.01,2013-09-17 18:36:00,
2013-09-17 14:37:00,79.2,74.3,29.90,ENE,75,4.0,4.0,85,0.00,,SCT020,0.24,VWS V14.01,2013-09-17 18:37:00,
2013-09-17 14:39:00,79.2,73.9,29.90,NE,52,2.0,4.0,84,0.00,,SCT020,0.24,VWS V14.01,2013-09-17 18:39:00,
2013-09-17 14:43:00,79.2,73.9,29.90,NE,44,2.0,7.0,84,0.00,,SCT020,0.24,VWS V14.01,2013-09-17 18:43:00,
2013-09-17 14:45:00,79.2,73.9,29.90,NE,49,6.0,8.0,84,0.00,,SCT020,0.24,VWS V14.01,2013-09-17 18:45:00,
2013-09-17 14:46:00,79.2,73.9,29.90,North,11,1.0,6.0,84,0.00,,SCT020,0.24,VWS V14.01,2013-09-17 18:46:00,
2013-09-17 14:50:00,79.2,73.9,29.90,NNE,31,2.0,8.0,84,0.00,,SCT020,0.24,VWS V14.01,2013-09-17 18:50:00,
2013-09-17 14:51:00,79.2,73.9,29.90,ENE,58,1.0,4.0,84,0.00,,SCT020,0.24,VWS V14.01,2013-09-17 18:51:00,
2013-09-17 14:52:00,79.2,73.9,29.90,NNE,31,2.0,4.0,84,0.00,,SCT020,0.24,VWS V14.01,2013-09-17 18:52:00,
2013-09-17 14:53:00,79.2,73.9,29.90,NNE,28,1.0,6.0,84,0.00,,SCT020,0.24,VWS V14.01,2013-09-17 18:53:00,
2013-09-17 14:56:00,79.4,74.2,29.90,NE,48,2.0,6.0,84,0.00,,SCT020,0.24,VWS V14.01,2013-09-17 18:56:00,
2013-09-17 14:57:00,79.4,74.2,29.90,NE,48,1.0,4.0,84,0.00,,SCT020,0.24,VWS V14.01,2013-09-17 18:57:00,
2013-09-17 14:59:00,79.4,74.2,29.90,East,82,0.0,2.0,84,0.00,,SCT020,0.24,VWS V14.01,2013-09-17 18:59:00,
2013-09-17 15:02:00,79.4,74.2,29.89,NNE,18,2.0,4.0,84,0.00,,SCT020,0.24,VWS V14.01,2013-09-17 19:02:00,
2013-09-17 15:03:00,79.4,74.2,29.89,North,6,2.0,4.0,84,0.00,,SCT020,0.24,VWS V14.01,2013-09-17 19:03:00,
2013-09-17 15:04:00,79.6,74.3,29.89,North,7,2.0,2.0,84,0.00,,SCT020,0.24,VWS V14.01,2013-09-17 19:04:00,
2013-09-17 15:07:00,79.6,74.3,29.89,ENE,62,2.0,2.0,84,0.00,,SCT020,0.24,VWS V14.01,2013-09-17 19:07:00,
2013-09-17 15:08:00,79.6,74.3,29.89,ENE,62,1.0,2.0,84,0.00,,SCT020,0.24,VWS V14.01,2013-09-17 19:08:00,
2013-09-17 15:13:00,79.6,74.3,29.89,NE,34,4.0,7.0,84,0.00,,SCT020,0.24,VWS V14.01,2013-09-17 19:13:00,
2013-09-17 15:14:00,79.6,74.3,29.89,NE,47,4.0,4.0,84,0.00,,SCT020,0.24,VWS V14.01,2013-09-17 19:14:00,
2013-09-17 15:15:00,79.6,74.3,29.89,NE,47,2.0,4.0,84,0.00,,SCT020,0.24,VWS V14.01,2013-09-17 19:15:00,
2013-09-17 15:18:00,79.6,74.0,29.89,NE,42,2.0,7.0,83,0.00,,SCT020,0.24,VWS V14.01,2013-09-17 19:18:00,
2013-09-17 15:19:00,79.6,74.3,29.89,NE,42,1.0,2.0,84,0.00,,SCT020,0.24,VWS V14.01,2013-09-17 19:19:00,
2013-09-17 15:20:00,79.6,74.3,29.89,NE,42,1.0,4.0,84,0.00,,SCT020,0.24,VWS V14.01,2013-09-17 19:20:00,
2013-09-17 15:21:00,79.6,74.3,29.89,NE,49,2.0,2.0,84,0.00,,SCT020,0.24,VWS V14.01,2013-09-17 19:21:00,
2013-09-17 15:22:00,79.6,74.3,29.89,NE,44,4.0,4.0,84,0.00,,SCT020,0.24,VWS V14.01,2013-09-17 19:22:00,
2013-09-17 15:27:00,79.6,74.0,29.89,NNE,28,2.0,6.0,83,0.00,,SCT020,0.24,VWS V14.01,2013-09-17 19:27:00,
2013-09-17 15:28:00,79.6,74.0,29.89,NE,37,2.0,2.0,83,0.00,,SCT020,0.24,VWS V14.01,2013-09-17 19:28:00,
2013-09-17 15:29:00,79.6,74.0,29.89,NE,44,2.0,6.0,83,0.00,,SCT020,0.24,VWS V14.01,2013-09-17 19:29:00,
2013-09-17 15:31:00,79.8,74.2,29.89,NNE,23,4.0,4.0,83,0.00,,SCT020,0.24,VWS V14.01,2013-09-17 19:31:00,
2013-09-17 15:33:00,79.8,74.2,29.89,ENE,66,2.0,7.0,83,0.00,,SCT020,0.24,VWS V14.01,2013-09-17 19:33:00,
2013-09-17 15:34:00,79.8,74.2,29.89,North,4,4.0,6.0,83,0.00,,SCT020,0.24,VWS V14.01,2013-09-17 19:34:00,
2013-09-17 15:36:00,79.8,74.2,29.89,NE,40,6.0,7.0,83,0.00,,SCT020,0.24,VWS V14.01,2013-09-17 19:36:00,
2013-09-17 15:37:00,79.8,74.2,29.89,NE,45,6.0,6.0,83,0.00,,SCT020,0.24,VWS V14.01,2013-09-17 19:37:00,
2013-09-17 15:38:00,79.8,74.2,29.89,ENE,78,1.0,8.0,83,0.00,,SCT020,0.24,VWS V14.01,2013-09-17 19:38:00,
2013-09-17 15:42:00,79.8,74.2,29.89,NE,41,1.0,1.0,83,0.00,,SCT020,0.24,VWS V14.01,2013-09-17 19:42:00,
2013-09-17 15:43:00,79.8,74.2,29.89,NNE,14,4.0,6.0,83,0.00,,SCT020,0.24,VWS V14.01,2013-09-17 19:43:00,
2013-09-17 15:45:00,79.8,74.2,29.88,NE,38,6.0,8.0,83,0.00,,SCT020,0.24,VWS V14.01,2013-09-17 19:45:00,
2013-09-17 15:49:00,79.8,74.2,29.88,NE,44,0.0,4.0,83,0.00,,SCT020,0.24,VWS V14.01,2013-09-17 19:49:00,
2013-09-17 15:50:00,79.8,74.2,29.88,NE,34,2.0,7.0,83,0.00,,SCT020,0.24,VWS V14.01,2013-09-17 19:50:00,
2013-09-17 15:51:00,79.8,74.2,29.88,NE,45,2.0,4.0,83,0.00,,SCT020,0.24,VWS V14.01,2013-09-17 19:51:00,
2013-09-17 15:53:00,79.6,74.0,29.88,ENE,72,2.0,4.0,83,0.01,,SCT020,0.25,VWS V14.01,2013-09-17 19:53:00,
2013-09-17 15:56:00,79.6,74.0,29.88,ENE,59,2.0,4.0,83,0.01,,SCT020,0.25,VWS V14.01,2013-09-17 19:56:00,
2013-09-17 15:57:00,79.6,73.6,29.88,NE,37,6.0,6.0,82,0.01,,SCT020,0.25,VWS V14.01,2013-09-17 19:57:00,
2013-09-17 15:58:00,79.4,73.4,29.88,NE,42,1.0,6.0,82,0.01,,SCT020,0.25,VWS V14.01,2013-09-17 19:58:00,
2013-09-17 15:59:00,79.4,73.8,29.88,NE,49,2.0,2.0,83,0.01,,SCT020,0.25,VWS V14.01,2013-09-17 19:59:00,
2013-09-17 16:03:00,79.4,73.8,29.87,NE,47,1.0,6.0,83,0.01,,SCT020,0.25,VWS V14.01,2013-09-17 20:03:00,
2013-09-17 16:04:00,79.4,73.8,29.87,NE,48,0.0,4.0,83,0.01,,SCT020,0.25,VWS V14.01,2013-09-17 20:04:00,
2013-09-17 16:05:00,79.2,73.6,29.87,East,79,2.0,4.0,83,0.01,,SCT020,0.25,VWS V14.01,2013-09-17 20:05:00,
2013-09-17 16:07:00,79.2,73.6,29.87,ENE,64,1.0,4.0,83,0.02,,SCT020,0.26,VWS V14.01,2013-09-17 20:07:00,
2013-09-17 16:09:00,79.2,73.6,29.87,NNE,32,6.0,6.0,83,0.02,,SCT020,0.26,VWS V14.01,2013-09-17 20:09:00,
2013-09-17 16:10:00,79.2,73.6,29.87,NE,45,2.0,6.0,83,0.02,,SCT020,0.26,VWS V14.01,2013-09-17 20:10:00,
2013-09-17 16:14:00,79.2,73.6,29.87,ENE,68,2.0,2.0,83,0.02,,SCT020,0.26,VWS V14.01,2013-09-17 20:14:00,
2013-09-17 16:15:00,79.2,73.6,29.87,NNE,24,2.0,6.0,83,0.02,,SCT020,0.26,VWS V14.01,2013-09-17 20:15:00,
2013-09-17 16:16:00,79.2,73.6,29.87,NNE,27,0.0,2.0,83,0.02,,SCT020,0.26,VWS V14.01,2013-09-17 20:16:00,
2013-09-17 16:17:00,79.2,73.6,29.87,NNE,27,1.0,2.0,83,0.02,,SCT020,0.26,VWS V14.01,2013-09-17 20:17:00,
2013-09-17 16:19:00,79.2,73.6,29.87,NE,35,2.0,2.0,83,0.02,,SCT020,0.26,VWS V14.01,2013-09-17 20:19:00,
2013-09-17 16:21:00,79.2,73.6,29.87,ENE,71,4.0,4.0,83,0.02,,SCT020,0.26,VWS V14.01,2013-09-17 20:21:00,
2013-09-17 16:22:00,79.2,73.6,29.87,ENE,66,0.0,4.0,83,0.02,,SCT020,0.26,VWS V14.01,2013-09-17 20:22:00,
2013-09-17 16:26:00,79.4,74.2,29.87,ENE,62,4.0,6.0,84,0.02,,SCT020,0.26,VWS V14.01,2013-09-17 20:26:00,
2013-09-17 16:29:00,79.4,74.2,29.87,NE,49,0.0,1.0,84,0.02,,SCT020,0.26,VWS V14.01,2013-09-17 20:29:00,
2013-09-17 16:30:00,79.4,74.2,29.87,NE,49,1.0,2.0,84,0.02,,SCT020,0.26,VWS V14.01,2013-09-17 20:30:00,
2013-09-17 16:32:00,79.4,74.2,29.87,ENE,58,2.0,4.0,84,0.02,,SCT020,0.26,VWS V14.01,2013-09-17 20:32:00,
2013-09-17 16:34:00,79.4,74.2,29.87,ENE,69,1.0,4.0,84,0.03,,SCT020,0.27,VWS V14.01,2013-09-17 20:34:00,
2013-09-17 16:35:00,79.4,74.2,29.87,NE,45,1.0,6.0,84,0.03,,SCT020,0.27,VWS V14.01,2013-09-17 20:35:00,
2013-09-17 16:36:00,79.4,74.2,29.87,NNE,14,6.0,6.0,84,0.03,,SCT020,0.27,VWS V14.01,2013-09-17 20:36:00,
2013-09-17 16:38:00,79.4,74.2,29.87,ENE,65,4.0,6.0,84,0.03,,SCT020,0.27,VWS V14.01,2013-09-17 20:38:00,
2013-09-17 16:39:00,79.4,73.8,29.87,ENE,65,2.0,4.0,83,0.03,,SCT020,0.27,VWS V14.01,2013-09-17 20:39:00,
2013-09-17 16:41:00,79.4,74.2,29.87,ENE,71,2.0,6.0,84,0.03,,SCT020,0.27,VWS V14.01,2013-09-17 20:41:00,
2013-09-17 16:42:00,79.4,74.2,29.87,ENE,75,8.0,8.0,84,0.03,,SCT020,0.27,VWS V14.01,2013-09-17 20:42:00,
2013-09-17 16:46:00,79.2,73.6,29.86,ENE,72,2.0,6.0,83,0.03,,SCT020,0.27,VWS V14.01,2013-09-17 20:46:00,
2013-09-17 16:47:00,79.2,73.6,29.86,East,80,2.0,7.0,83,0.03,,SCT020,0.27,VWS V14.01,2013-09-17 20:47:00,
2013-09-17 16:50:00,79.2,73.6,29.86,ENE,76,6.0,7.0,83,0.03,,SCT020,0.27,VWS V14.01,2013-09-17 20:50:00,
2013-09-17 16:52:00,79.2,73.6,29.86,East,83,4.0,6.0,83,0.03,,SCT020,0.27,VWS V14.01,2013-09-17 20:52:00,
2013-09-17 16:53:00,79.2,73.6,29.86,East,83,6.0,7.0,83,0.03,,SCT020,0.27,VWS V14.01,2013-09-17 20:53:00,
2013-09-17 16:54:00,79.2,73.6,29.86,NE,47,4.0,6.0,83,0.02,,SCT020,0.27,VWS V14.01,2013-09-17 20:54:00,
2013-09-17 16:58:00,79.0,73.0,29.86,ENE,69,6.0,6.0,82,0.02,,SCT020,0.27,VWS V14.01,2013-09-17 20:58:00,
2013-09-17 16:59:00,79.0,73.0,29.86,East,92,2.0,6.0,82,0.02,,SCT020,0.27,VWS V14.01,2013-09-17 20:59:00,
2013-09-17 17:02:00,79.0,73.4,29.86,ENE,61,4.0,6.0,83,0.02,,SCT020,0.27,VWS V14.01,2013-09-17 21:02:00,
2013-09-17 17:03:00,79.0,73.4,29.86,East,79,4.0,7.0,83,0.02,,SCT020,0.27,VWS V14.01,2013-09-17 21:03:00,
2013-09-17 17:04:00,79.0,73.4,29.86,East,80,2.0,4.0,83,0.02,,SCT020,0.27,VWS V14.01,2013-09-17 21:04:00,
2013-09-17 17:08:00,79.0,73.4,29.86,NE,42,1.0,4.0,83,0.01,,SCT020,0.27,VWS V14.01,2013-09-17 21:08:00,
2013-09-17 17:09:00,79.0,73.4,29.86,NE,42,1.0,2.0,83,0.01,,SCT020,0.27,VWS V14.01,2013-09-17 21:09:00,
2013-09-17 17:10:00,79.0,73.4,29.86,NE,54,2.0,4.0,83,0.01,,SCT020,0.27,VWS V14.01,2013-09-17 21:10:00,
2013-09-17 17:11:00,79.0,73.4,29.86,NE,54,0.0,4.0,83,0.01,,SCT020,0.27,VWS V14.01,2013-09-17 21:11:00,
2013-09-17 17:14:00,79.0,73.4,29.86,NNE,28,2.0,6.0,83,0.01,,SCT020,0.27,VWS V14.01,2013-09-17 21:14:00,
2013-09-17 17:16:00,78.8,73.2,29.85,East,86,4.0,6.0,83,0.01,,SCT020,0.27,VWS V14.01,2013-09-17 21:16:00,
2013-09-17 17:19:00,78.8,72.8,29.85,ENE,71,1.0,2.0,82,0.01,,SCT020,0.27,VWS V14.01,2013-09-17 21:19:00,
2013-09-17 17:21:00,78.8,73.2,29.85,East,88,1.0,2.0,83,0.01,,SCT020,0.27,VWS V14.01,2013-09-17 21:21:00,
2013-09-17 17:23:00,78.8,73.2,29.85,ENE,69,2.0,2.0,83,0.01,,SCT020,0.27,VWS V14.01,2013-09-17 21:23:00,
2013-09-17 17:25:00,78.8,72.8,29.85,NE,40,1.0,4.0,82,0.01,,SCT020,0.27,VWS V14.01,2013-09-17 21:25:00,
2013-09-17 17:27:00,78.6,72.7,29.85,NE,45,2.0,7.0,82,0.01,,SCT020,0.27,VWS V14.01,2013-09-17 21:27:00,
2013-09-17 17:30:00,78.8,72.8,29.85,North,7,7.0,8.0,82,0.01,,SCT020,0.27,VWS V14.01,2013-09-17 21:30:00,
2013-09-17 17:33:00,78.8,72.8,29.85,NE,42,4.0,4.0,82,0.01,,SCT020,0.27,VWS V14.01,2013-09-17 21:33:00,
2013-09-17 17:34:00,78.8,72.8,29.85,ENE,65,2.0,4.0,82,0.00,,SCT020,0.27,VWS V14.01,2013-09-17 21:34:00,
2013-09-17 17:38:00,78.8,73.2,29.85,NNE,23,2.0,4.0,83,0.00,,SCT020,0.27,VWS V14.01,2013-09-17 21:38:00,
2013-09-17 17:39:00,78.8,73.2,29.85,NNE,27,2.0,7.0,83,0.00,,SCT020,0.27,VWS V14.01,2013-09-17 21:39:00,
2013-09-17 17:40:00,78.8,73.2,29.85,NNE,25,4.0,4.0,83,0.00,,SCT020,0.27,VWS V14.01,2013-09-17 21:40:00,
2013-09-17 17:41:00,78.8,73.2,29.85,NE,54,2.0,7.0,83,0.00,,SCT020,0.27,VWS V14.01,2013-09-17 21:41:00,
2013-09-17 17:42:00,78.8,72.8,29.85,NNE,31,4.0,8.0,82,0.00,,SCT020,0.27,VWS V14.01,2013-09-17 21:42:00,
2013-09-17 17:48:00,78.8,73.2,29.85,ENE,68,1.0,2.0,83,0.00,,SCT020,0.27,VWS V14.01,2013-09-17 21:48:00,
2013-09-17 17:49:00,78.8,72.8,29.85,ENE,71,1.0,2.0,82,0.00,,SCT020,0.27,VWS V14.01,2013-09-17 21:49:00,
2013-09-17 17:50:00,78.8,72.8,29.85,ENE,69,1.0,2.0,82,0.00,,SCT020,0.27,VWS V14.01,2013-09-17 21:50:00,
2013-09-17 17:51:00,78.8,73.2,29.85,ENE,69,2.0,4.0,83,0.00,,SCT020,0.27,VWS V14.01,2013-09-17 21:51:00,
2013-09-17 17:55:00,78.8,73.2,29.85,ENE,69,1.0,1.0,83,0.00,,SCT020,0.27,VWS V14.01,2013-09-17 21:55:00,
2013-09-17 17:56:00,79.0,73.4,29.85,NE,52,1.0,4.0,83,0.00,,SCT020,0.27,VWS V14.01,2013-09-17 21:56:00,
2013-09-17 17:57:00,79.0,73.4,29.85,NE,54,1.0,2.0,83,0.00,,SCT020,0.27,VWS V14.01,2013-09-17 21:57:00,
2013-09-17 18:01:00,79.0,73.4,29.85,NE,37,2.0,4.0,83,0.00,,SCT020,0.27,VWS V14.01,2013-09-17 22:01:00,
2013-09-17 18:02:00,79.0,73.4,29.85,NE,35,2.0,8.0,83,0.00,,SCT020,0.27,VWS V14.01,2013-09-17 22:02:00,
2013-09-17 18:03:00,79.0,73.4,29.85,NE,35,1.0,2.0,83,0.00,,SCT020,0.27,VWS V14.01,2013-09-17 22:03:00,
2013-09-17 18:04:00,79.0,73.4,29.85,NE,42,6.0,6.0,83,0.00,,SCT020,0.27,VWS V14.01,2013-09-17 22:04:00,
2013-09-17 18:07:00,79.2,73.6,29.85,ENE,72,4.0,4.0,83,0.00,,SCT020,0.27,VWS V14.01,2013-09-17 22:07:00,
2013-09-17 18:10:00,79.2,73.6,29.85,ENE,65,1.0,2.0,83,0.00,,SCT020,0.27,VWS V14.01,2013-09-17 22:10:00,
2013-09-17 18:11:00,79.2,73.6,29.85,ENE,73,1.0,4.0,83,0.00,,SCT020,0.27,VWS V14.01,2013-09-17 22:11:00,
2013-09-17 18:13:00,79.2,73.6,29.85,NE,51,2.0,4.0,83,0.00,,SCT020,0.27,VWS V14.01,2013-09-17 22:13:00,
2013-09-17 18:14:00,79.2,73.6,29.85,NNE,24,1.0,6.0,83,0.00,,SCT020,0.27,VWS V14.01,2013-09-17 22:14:00,
2013-09-17 18:18:00,79.2,73.6,29.85,NE,45,4.0,7.0,83,0.00,,SCT020,0.27,VWS V14.01,2013-09-17 22:18:00,
2013-09-17 18:19:00,79.2,73.6,29.85,NE,49,6.0,6.0,83,0.00,,SCT020,0.27,VWS V14.01,2013-09-17 22:19:00,
2013-09-17 18:21:00,79.2,73.6,29.85,ENE,76,4.0,4.0,83,0.00,,SCT020,0.27,VWS V14.01,2013-09-17 22:21:00,
2013-09-17 18:24:00,79.4,73.8,29.85,NE,55,2.0,2.0,83,0.00,,SCT020,0.27,VWS V14.01,2013-09-17 22:24:00,
2013-09-17 18:26:00,79.4,73.8,29.85,East,79,4.0,6.0,83,0.00,,SCT020,0.27,VWS V14.01,2013-09-17 22:26:00,
2013-09-17 18:29:00,79.4,73.8,29.85,East,83,2.0,4.0,83,0.00,,SCT020,0.27,VWS V14.01,2013-09-17 22:29:00,
2013-09-17 18:32:00,79.4,73.8,29.84,ENE,76,2.0,4.0,83,0.00,,SCT020,0.27,VWS V14.01,2013-09-17 22:32:00,
2013-09-17 18:34:00,79.4,73.8,29.84,ENE,76,2.0,4.0,83,0.00,,SCT020,0.27,VWS V14.01,2013-09-17 22:34:00,
2013-09-17 18:36:00,79.4,73.8,29.84,NE,35,1.0,2.0,83,0.00,,SCT020,0.27,VWS V14.01,2013-09-17 22:36:00,
2013-09-17 18:37:00,79.4,73.8,29.84,ENE,58,2.0,4.0,83,0.00,,SCT020,0.27,VWS V14.01,2013-09-17 22:37:00,
2013-09-17 18:39:00,79.2,73.6,29.84,ENE,68,1.0,2.0,83,0.00,,SCT020,0.27,VWS V14.01,2013-09-17 22:39:00,
2013-09-17 18:43:00,79.2,73.6,29.84,ENE,64,2.0,6.0,83,0.00,,SCT020,0.27,VWS V14.01,2013-09-17 22:43:00,
2013-09-17 18:44:00,79.2,73.6,29.84,ENE,72,2.0,2.0,83,0.00,,SCT020,0.27,VWS V14.01,2013-09-17 22:44:00,
2013-09-17 18:48:00,79.0,73.0,29.84,ENE,58,1.0,2.0,82,0.00,,SCT020,0.27,VWS V14.01,2013-09-17 22:48:00,
2013-09-17 18:50:00,79.0,73.0,29.84,ENE,65,1.0,4.0,82,0.00,,SCT020,0.27,VWS V14.01,2013-09-17 22:50:00,
2013-09-17 18:54:00,78.8,72.8,29.84,NE,40,1.0,4.0,82,0.00,,SCT020,0.27,VWS V14.01,2013-09-17 22:54:00,
2013-09-17 18:55:00,78.8,72.8,29.84,ENE,72,2.0,4.0,82,0.00,,SCT020,0.27,VWS V14.01,2013-09-17 22:55:00,
2013-09-17 18:56:00,78.8,72.8,29.84,ENE,64,2.0,2.0,82,0.00,,SCT020,0.27,VWS V14.01,2013-09-17 22:56:00,
2013-09-17 19:01:00,78.8,72.5,29.84,NE,37,2.0,6.0,81,0.00,,SCT020,0.27,VWS V14.01,2013-09-17 23:01:00,
2013-09-17 19:02:00,78.8,72.5,29.84,East,79,2.0,6.0,81,0.00,,SCT020,0.27,VWS V14.01,2013-09-17 23:02:00,
2013-09-17 19:05:00,78.8,72.5,29.84,NE,38,4.0,4.0,81,0.00,,SCT020,0.27,VWS V14.01,2013-09-17 23:05:00,
2013-09-17 19:07:00,78.8,72.5,29.84,NE,51,2.0,6.0,81,0.00,,SCT020,0.27,VWS V14.01,2013-09-17 23:07:00,
2013-09-17 19:08:00,79.0,72.7,29.84,ENE,78,1.0,4.0,81,0.00,,SCT020,0.27,VWS V14.01,2013-09-17 23:08:00,
2013-09-17 19:12:00,79.0,72.7,29.84,East,93,1.0,2.0,81,0.00,,SCT020,0.27,VWS V14.01,2013-09-17 23:12:00,
2013-09-17 19:14:00,79.0,72.7,29.84,ESE,103,1.0,2.0,81,0.00,,SCT020,0.27,VWS V14.01,2013-09-17 23:14:00,
2013-09-17 19:17:00,79.0,72.7,29.84,ESE,113,1.0,1.0,81,0.00,,SCT020,0.27,VWS V14.01,2013-09-17 23:17:00,
2013-09-17 19:19:00,79.0,72.7,29.84,East,83,1.0,2.0,81,0.00,,SCT020,0.27,VWS V14.01,2013-09-17 23:19:00,
2013-09-17 19:21:00,79.0,72.7,29.84,East,80,1.0,4.0,81,0.00,,SCT020,0.27,VWS V14.01,2013-09-17 23:21:00,
2013-09-17 19:26:00,79.0,73.0,29.84,East,83,1.0,4.0,82,0.00,,SCT020,0.27,VWS V14.01,2013-09-17 23:26:00,
2013-09-17 19:27:00,79.0,73.0,29.84,ENE,66,4.0,6.0,82,0.00,,SCT020,0.27,VWS V14.01,2013-09-17 23:27:00,
2013-09-17 19:28:00,79.0,73.0,29.84,East,95,2.0,4.0,82,0.00,,SCT020,0.27,VWS V14.01,2013-09-17 23:28:00,
2013-09-17 19:32:00,79.0,73.0,29.85,East,83,1.0,1.0,82,0.00,,SCT020,0.27,VWS V14.01,2013-09-17 23:32:00,
2013-09-17 19:33:00,79.0,73.0,29.85,ESE,113,1.0,4.0,82,0.00,,SCT020,0.27,VWS V14.01,2013-09-17 23:33:00,
2013-09-17 19:36:00,79.0,73.0,29.85,ESE,104,2.0,2.0,82,0.00,,SCT020,0.27,VWS V14.01,2013-09-17 23:36:00,
2013-09-17 19:38:00,79.0,73.0,29.85,East,99,0.0,4.0,82,0.00,,SCT020,0.27,VWS V14.01,2013-09-17 23:38:00,
2013-09-17 19:39:00,79.0,73.0,29.85,East,99,1.0,2.0,82,0.00,,SCT020,0.27,VWS V14.01,2013-09-17 23:39:00,
2013-09-17 19:42:00,79.0,73.0,29.85,East,83,0.0,2.0,82,0.00,,SCT020,0.27,VWS V14.01,2013-09-17 23:42:00,
2013-09-17 19:43:00,79.0,73.0,29.85,ENE,78,2.0,6.0,82,0.00,,SCT020,0.27,VWS V14.01,2013-09-17 23:43:00,
2013-09-17 19:44:00,79.0,73.0,29.85,ENE,78,2.0,2.0,82,0.00,,SCT020,0.27,VWS V14.01,2013-09-17 23:44:00,
2013-09-17 19:47:00,79.2,73.6,29.85,ENE,75,0.0,4.0,83,0.00,,SCT020,0.27,VWS V14.01,2013-09-17 23:47:00,
2013-09-17 19:49:00,79.2,73.6,29.85,ENE,76,0.0,4.0,83,0.00,,SCT020,0.27,VWS V14.01,2013-09-17 23:49:00,
2013-09-17 19:50:00,79.2,73.6,29.85,ENE,78,2.0,2.0,83,0.00,,SCT020,0.27,VWS V14.01,2013-09-17 23:50:00,
2013-09-17 19:52:00,79.2,73.6,29.85,East,99,1.0,6.0,83,0.00,,SCT020,0.27,VWS V14.01,2013-09-17 23:52:00,
2013-09-17 19:54:00,79.2,73.6,29.85,East,99,1.0,1.0,83,0.00,,SCT020,0.27,VWS V14.01,2013-09-17 23:54:00,
2013-09-17 19:55:00,79.2,73.6,29.85,East,99,0.0,2.0,83,0.00,,SCT020,0.27,VWS V14.01,2013-09-17 23:55:00,
2013-09-17 19:56:00,79.2,73.6,29.85,East,99,1.0,1.0,83,0.00,,SCT020,0.27,VWS V14.01,2013-09-17 23:56:00,
2013-09-17 19:59:00,79.2,73.6,29.85,NE,34,0.0,6.0,83,0.00,,SCT020,0.27,VWS V14.01,2013-09-17 23:59:00,
2013-09-17 20:01:00,79.2,73.6,29.86,ENE,72,1.0,2.0,83,0.00,,SCT020,0.27,VWS V14.01,2013-09-18 00:01:00,
2013-09-17 20:02:00,79.2,73.6,29.86,ENE,72,2.0,2.0,83,0.00,,SCT020,0.27,VWS V14.01,2013-09-18 00:02:00,
2013-09-17 20:06:00,79.2,73.2,29.86,ENE,75,2.0,2.0,82,0.00,,SCT020,0.27,VWS V14.01,2013-09-18 00:06:00,
2013-09-17 20:07:00,79.2,73.2,29.86,ENE,76,1.0,2.0,82,0.00,,SCT020,0.27,VWS V14.01,2013-09-18 00:07:00,
2013-09-17 20:08:00,79.2,73.2,29.86,ESE,110,1.0,6.0,82,0.00,,SCT020,0.27,VWS V14.01,2013-09-18 00:08:00,
2013-09-17 20:09:00,79.2,73.2,29.86,ESE,110,1.0,1.0,82,0.00,,SCT020,0.27,VWS V14.01,2013-09-18 00:09:00,
2013-09-17 20:11:00,79.2,73.2,29.86,ESE,110,0.0,2.0,82,0.00,,SCT020,0.27,VWS V14.01,2013-09-18 00:11:00,
2013-09-17 20:14:00,79.2,73.2,29.86,ESE,112,2.0,2.0,82,0.00,,SCT020,0.27,VWS V14.01,2013-09-18 00:14:00,
2013-09-17 20:16:00,79.2,72.9,29.87,East,89,1.0,4.0,81,0.00,,SCT020,0.27,VWS V14.01,2013-09-18 00:16:00,
2013-09-17 20:20:00,79.4,73.1,29.87,East,99,0.0,2.0,81,0.00,,SCT020,0.27,VWS V14.01,2013-09-18 00:20:00,
2013-09-17 20:21:00,79.4,73.1,29.87,East,99,1.0,2.0,81,0.00,,SCT020,0.27,VWS V14.01,2013-09-18 00:21:00,
2013-09-17 20:22:00,79.4,73.1,29.87,East,99,1.0,2.0,81,0.00,,SCT020,0.27,VWS V14.01,2013-09-18 00:22:00,
2013-09-17 20:26:00,79.4,73.1,29.87,East,99,1.0,1.0,81,0.00,,SCT020,0.27,VWS V14.01,2013-09-18 00:26:00,
2013-09-17 20:27:00,79.4,73.1,29.87,East,99,2.0,2.0,81,0.00,,SCT020,0.27,VWS V14.01,2013-09-18 00:27:00,
2013-09-17 20:28:00,79.4,72.7,29.87,East,99,0.0,2.0,80,0.00,,SCT020,0.27,VWS V14.01,2013-09-18 00:28:00,
2013-09-17 20:32:00,79.4,73.1,29.87,East,99,1.0,1.0,81,0.00,,SCT020,0.27,VWS V14.01,2013-09-18 00:32:00,
2013-09-17 20:36:00,79.4,72.7,29.87,ESE,113,1.0,6.0,80,0.00,,SCT020,0.27,VWS V14.01,2013-09-18 00:36:00,
2013-09-17 20:37:00,79.4,72.7,29.87,ESE,113,1.0,1.0,80,0.00,,SCT020,0.27,VWS V14.01,2013-09-18 00:37:00,
2013-09-17 20:39:00,79.4,72.7,29.87,ESE,109,1.0,2.0,80,0.00,,SCT020,0.27,VWS V14.01,2013-09-18 00:39:00,
2013-09-17 20:43:00,79.4,72.3,29.87,ESE,109,2.0,2.0,79,0.00,,SCT020,0.27,VWS V14.01,2013-09-18 00:43:00,
2013-09-17 20:45:00,79.4,72.3,29.88,ESE,110,0.0,1.0,79,0.00,,SCT020,0.27,VWS V14.01,2013-09-18 00:45:00,
2013-09-17 20:46:00,79.4,72.3,29.88,ESE,110,0.0,0.0,79,0.00,,SCT020,0.27,VWS V14.01,2013-09-18 00:46:00,
2013-09-17 20:48:00,79.4,72.7,29.88,ESE,110,0.0,1.0,80,0.00,,SCT020,0.27,VWS V14.01,2013-09-18 00:48:00,
2013-09-17 20:50:00,79.4,72.3,29.88,ESE,110,0.0,1.0,79,0.00,,SCT020,0.27,VWS V14.01,2013-09-18 00:50:00,
2013-09-17 20:52:00,79.4,72.3,29.88,ESE,110,0.0,1.0,79,0.00,,SCT020,0.27,VWS V14.01,2013-09-18 00:52:00,
2013-09-17 20:53:00,79.4,72.3,29.88,ESE,110,2.0,2.0,79,0.00,,SCT020,0.27,VWS V14.01,2013-09-18 00:53:00,
2013-09-17 20:56:00,79.4,72.3,29.88,East,100,2.0,2.0,79,0.00,,SCT020,0.27,VWS V14.01,2013-09-18 00:56:00,
2013-09-17 20:58:00,79.6,72.5,29.88,East,97,2.0,2.0,79,0.00,,SCT020,0.27,VWS V14.01,2013-09-18 00:58:00,
2013-09-17 20:59:00,79.6,72.5,29.88,East,97,1.0,2.0,79,0.00,,SCT020,0.27,VWS V14.01,2013-09-18 00:59:00,
2013-09-17 21:01:00,79.6,72.5,29.88,East,97,1.0,2.0,79,0.00,,SCT020,0.27,VWS V14.01,2013-09-18 01:01:00,
2013-09-17 21:05:00,79.8,72.7,29.88,East,95,1.0,1.0,79,0.00,,SCT020,0.27,VWS V14.01,2013-09-18 01:05:00,
2013-09-17 21:06:00,79.8,72.7,29.88,East,95,0.0,2.0,79,0.00,,SCT020,0.27,VWS V14.01,2013-09-18 01:06:00,
2013-09-17 21:07:00,79.8,72.7,29.88,East,95,1.0,2.0,79,0.00,,SCT020,0.27,VWS V14.01,2013-09-18 01:07:00,
2013-09-17 21:11:00,79.9,72.8,29.88,East,95,0.0,1.0,79,0.00,,SCT020,0.27,VWS V14.01,2013-09-18 01:11:00,
2013-09-17 21:12:00,79.9,72.8,29.88,NE,47,1.0,4.0,79,0.00,,SCT020,0.27,VWS V14.01,2013-09-18 01:12:00,
2013-09-17 21:14:00,79.9,73.2,29.88,NE,47,1.0,1.0,80,0.00,,SCT020,0.27,VWS V14.01,2013-09-18 01:14:00,
2013-09-17 21:15:00,79.9,73.2,29.89,NE,47,0.0,1.0,80,0.00,,SCT020,0.27,VWS V14.01,2013-09-18 01:15:00,
2013-09-17 21:18:00,79.9,73.2,29.89,NE,47,0.0,2.0,80,0.00,,SCT020,0.27,VWS V14.01,2013-09-18 01:18:00,
2013-09-17 21:20:00,79.9,73.2,29.89,NE,47,0.0,1.0,80,0.00,,SCT020,0.27,VWS V14.01,2013-09-18 01:20:00,
2013-09-17 21:23:00,79.9,73.2,29.89,NE,47,1.0,1.0,80,0.00,,SCT020,0.27,VWS V14.01,2013-09-18 01:23:00,
2013-09-17 21:24:00,79.9,73.2,29.89,NE,51,2.0,2.0,80,0.00,,SCT020,0.27,VWS V14.01,2013-09-18 01:24:00,
2013-09-17 21:27:00,79.9,73.2,29.89,NE,51,0.0,1.0,80,0.00,,SCT020,0.27,VWS V14.01,2013-09-18 01:27:00,
2013-09-17 21:29:00,80.1,73.4,29.89,NE,52,0.0,1.0,80,0.00,,SCT020,0.27,VWS V14.01,2013-09-18 01:29:00,
2013-09-17 21:30:00,80.1,73.4,29.89,NE,52,0.0,1.0,80,0.00,,SCT020,0.27,VWS V14.01,2013-09-18 01:30:00,
2013-09-17 21:32:00,79.9,73.2,29.89,NE,52,0.0,1.0,80,0.00,,SCT020,0.27,VWS V14.01,2013-09-18 01:32:00,
2013-09-17 21:34:00,79.9,73.2,29.89,NE,52,0.0,1.0,80,0.00,,SCT020,0.27,VWS V14.01,2013-09-18 01:34:00,
2013-09-17 21:37:00,79.9,73.2,29.89,NE,52,1.0,2.0,80,0.00,,SCT020,0.27,VWS V14.01,2013-09-18 01:37:00,
2013-09-17 21:39:00,79.9,73.2,29.89,NE,56,1.0,1.0,80,0.00,,SCT020,0.27,VWS V14.01,2013-09-18 01:39:00,
2013-09-17 21:42:00,79.9,73.2,29.89,NE,40,4.0,4.0,80,0.00,,SCT020,0.27,VWS V14.01,2013-09-18 01:42:00,
2013-09-17 21:44:00,79.9,73.2,29.89,ENE,78,0.0,1.0,80,0.00,,SCT020,0.27,VWS V14.01,2013-09-18 01:44:00,
2013-09-17 21:49:00,80.1,73.4,29.89,ENE,75,0.0,1.0,80,0.00,,SCT020,0.27,VWS V14.01,2013-09-18 01:49:00,
2013-09-17 21:50:00,80.1,73.0,29.89,ENE,75,0.0,0.0,79,0.00,,SCT020,0.27,VWS V14.01,2013-09-18 01:50:00,
2013-09-17 21:51:00,80.1,73.0,29.89,ENE,75,1.0,1.0,79,0.00,,SCT020,0.27,VWS V14.01,2013-09-18 01:51:00,
2013-09-17 21:54:00,80.1,73.0,29.89,ENE,75,2.0,4.0,79,0.00,,SCT020,0.27,VWS V14.01,2013-09-18 01:54:00,
2013-09-17 21:56:00,80.1,73.0,29.89,ENE,75,1.0,1.0,79,0.00,,SCT020,0.27,VWS V14.01,2013-09-18 01:56:00,
2013-09-17 21:58:00,80.1,73.0,29.89,ENE,62,0.0,1.0,79,0.00,,SCT020,0.27,VWS V14.01,2013-09-18 01:58:00,
2013-09-17 21:59:00,80.1,73.0,29.89,ENE,62,1.0,1.0,79,0.00,,SCT020,0.27,VWS V14.01,2013-09-18 01:59:00,
2013-09-17 22:02:00,80.1,73.0,29.89,ENE,62,0.0,1.0,79,0.00,,SCT020,0.27,VWS V14.01,2013-09-18 02:02:00,
2013-09-17 22:04:00,80.1,73.0,29.89,ENE,62,0.0,1.0,79,0.00,,SCT020,0.27,VWS V14.01,2013-09-18 02:04:00,
2013-09-17 22:06:00,80.1,73.0,29.89,ENE,62,1.0,4.0,79,0.00,,SCT020,0.27,VWS V14.01,2013-09-18 02:06:00,
2013-09-17 22:09:00,80.1,73.0,29.89,ENE,62,0.0,1.0,79,0.00,,SCT020,0.27,VWS V14.01,2013-09-18 02:09:00,
2013-09-17 22:10:00,80.1,73.0,29.89,ENE,62,0.0,1.0,79,0.00,,SCT020,0.27,VWS V14.01,2013-09-18 02:10:00,
2013-09-17 22:12:00,80.1,73.0,29.89,ENE,62,1.0,1.0,79,0.00,,SCT020,0.27,VWS V14.01,2013-09-18 02:12:00,
2013-09-17 22:14:00,80.1,73.0,29.89,ENE,62,0.0,1.0,79,0.00,,SCT020,0.27,VWS V14.01,2013-09-18 02:14:00,
2013-09-17 22:15:00,80.1,73.4,29.89,ENE,62,0.0,0.0,80,0.00,,SCT020,0.27,VWS V14.01,2013-09-18 02:15:00,
2013-09-17 22:19:00,80.1,73.4,29.89,ENE,62,0.0,2.0,80,0.00,,SCT020,0.27,VWS V14.01,2013-09-18 02:19:00,
2013-09-17 22:20:00,80.1,73.4,29.89,ENE,62,0.0,0.0,80,0.00,,SCT020,0.27,VWS V14.01,2013-09-18 02:20:00,
2013-09-17 22:22:00,79.9,73.2,29.89,ENE,64,1.0,1.0,80,0.00,,SCT020,0.27,VWS V14.01,2013-09-18 02:22:00,
2013-09-17 22:26:00,79.9,73.2,29.89,ENE,64,1.0,2.0,80,0.00,,SCT020,0.27,VWS V14.01,2013-09-18 02:26:00,
2013-09-17 22:29:00,79.9,73.2,29.89,ENE,64,0.0,1.0,80,0.00,,SCT020,0.27,VWS V14.01,2013-09-18 02:29:00,
2013-09-17 22:32:00,79.9,73.2,29.89,ENE,64,0.0,0.0,80,0.00,,SCT020,0.27,VWS V14.01,2013-09-18 02:32:00,
2013-09-17 22:34:00,79.9,73.2,29.89,ENE,64,1.0,1.0,80,0.00,,SCT020,0.27,VWS V14.01,2013-09-18 02:34:00,
2013-09-17 22:35:00,79.9,73.2,29.89,ENE,64,0.0,1.0,80,0.00,,SCT020,0.27,VWS V14.01,2013-09-18 02:35:00,
2013-09-17 22:36:00,79.8,73.1,29.89,ENE,64,0.0,0.0,80,0.00,,SCT020,0.27,VWS V14.01,2013-09-18 02:36:00,
2013-09-17 22:37:00,79.8,73.4,29.89,ENE,64,0.0,1.0,81,0.00,,SCT020,0.27,VWS V14.01,2013-09-18 02:37:00,
2013-09-17 22:41:00,79.8,73.4,29.89,ENE,64,0.0,0.0,81,0.00,,SCT020,0.27,VWS V14.01,2013-09-18 02:41:00,
2013-09-17 22:42:00,79.8,73.4,29.89,ENE,64,0.0,0.0,81,0.00,,SCT020,0.27,VWS V14.01,2013-09-18 02:42:00,
2013-09-17 22:44:00,79.8,73.4,29.89,ENE,64,1.0,1.0,81,0.00,,SCT020,0.27,VWS V14.01,2013-09-18 02:44:00,
2013-09-17 22:47:00,79.8,73.4,29.89,ENE,64,0.0,0.0,81,0.00,,SCT020,0.27,VWS V14.01,2013-09-18 02:47:00,
2013-09-17 22:48:00,79.8,73.4,29.89,ENE,64,1.0,1.0,81,0.00,,SCT020,0.27,VWS V14.01,2013-09-18 02:48:00,
2013-09-17 22:52:00,79.8,73.4,29.89,ENE,64,0.0,1.0,81,0.00,,SCT020,0.27,VWS V14.01,2013-09-18 02:52:00,
2013-09-17 22:53:00,79.8,73.4,29.89,ENE,64,0.0,0.0,81,0.00,,SCT020,0.27,VWS V14.01,2013-09-18 02:53:00,
2013-09-17 22:54:00,79.8,73.4,29.89,ENE,64,1.0,1.0,81,0.00,,SCT020,0.27,VWS V14.01,2013-09-18 02:54:00,
2013-09-17 22:59:00,79.8,73.4,29.89,ENE,64,0.0,1.0,81,0.00,,SCT020,0.27,VWS V14.01,2013-09-18 02:59:00,
2013-09-17 23:00:00,79.8,73.4,29.89,ENE,64,0.0,1.0,81,0.00,,SCT020,0.27,VWS V14.01,2013-09-18 03:00:00,
2013-09-17 23:02:00,79.8,73.4,29.89,ENE,64,1.0,1.0,81,0.00,,SCT020,0.27,VWS V14.01,2013-09-18 03:02:00,
2013-09-17 23:03:00,79.8,73.4,29.89,ENE,64,1.0,2.0,81,0.00,,SCT020,0.27,VWS V14.01,2013-09-18 03:03:00,
2013-09-17 23:04:00,79.8,73.4,29.89,ENE,64,2.0,2.0,81,0.00,,SCT020,0.27,VWS V14.01,2013-09-18 03:04:00,
2013-09-17 23:08:00,79.9,73.6,29.89,ENE,64,0.0,0.0,81,0.00,,SCT020,0.27,VWS V14.01,2013-09-18 03:08:00,
2013-09-17 23:09:00,79.9,73.6,29.89,ENE,64,1.0,2.0,81,0.00,,SCT020,0.27,VWS V14.01,2013-09-18 03:09:00,
2013-09-17 23:11:00,79.9,73.6,29.89,ENE,64,1.0,2.0,81,0.00,,SCT020,0.27,VWS V14.01,2013-09-18 03:11:00,
2013-09-17 23:14:00,79.9,73.2,29.89,ENE,64,0.0,2.0,80,0.00,,SCT020,0.27,VWS V14.01,2013-09-18 03:14:00,
2013-09-17 23:15:00,79.9,73.2,29.89,ENE,64,0.0,0.0,80,0.00,,SCT020,0.27,VWS V14.01,2013-09-18 03:15:00,
2013-09-17 23:18:00,79.9,73.2,29.89,ENE,64,0.0,0.0,80,0.00,,SCT020,0.27,VWS V14.01,2013-09-18 03:18:00,
2013-09-17 23:20:00,79.9,73.2,29.89,ENE,64,0.0,1.0,80,0.00,,SCT020,0.27,VWS V14.01,2013-09-18 03:20:00,
2013-09-17 23:21:00,79.9,73.2,29.89,ENE,64,0.0,0.0,80,0.00,,SCT020,0.27,VWS V14.01,2013-09-18 03:21:00,
2013-09-17 23:23:00,79.9,73.6,29.89,ENE,64,0.0,0.0,81,0.00,,SCT020,0.27,VWS V14.01,2013-09-18 03:23:00,
2013-09-17 23:27:00,79.9,73.2,29.89,ENE,64,0.0,0.0,80,0.00,,SCT020,0.27,VWS V14.01,2013-09-18 03:27:00,
2013-09-17 23:28:00,79.9,73.6,29.89,ENE,64,0.0,0.0,81,0.00,,SCT020,0.27,VWS V14.01,2013-09-18 03:28:00,
2013-09-17 23:30:00,79.9,73.6,29.89,ENE,64,0.0,0.0,81,0.00,,SCT020,0.27,VWS V14.01,2013-09-18 03:30:00,
2013-09-17 23:31:00,79.9,73.6,29.89,ENE,64,0.0,0.0,81,0.00,,SCT020,0.27,VWS V14.01,2013-09-18 03:31:00,
2013-09-17 23:34:00,79.9,73.6,29.89,ENE,64,0.0,1.0,81,0.00,,SCT020,0.27,VWS V14.01,2013-09-18 03:34:00,
2013-09-17 23:36:00,79.9,73.6,29.89,ENE,64,0.0,0.0,81,0.00,,SCT020,0.27,VWS V14.01,2013-09-18 03:36:00,
2013-09-17 23:37:00,79.9,73.6,29.89,ENE,64,0.0,0.0,81,0.00,,SCT020,0.27,VWS V14.01,2013-09-18 03:37:00,
2013-09-17 23:41:00,79.8,73.4,29.89,ENE,64,0.0,0.0,81,0.00,,SCT020,0.27,VWS V14.01,2013-09-18 03:41:00,
2013-09-17 23:42:00,79.8,73.4,29.89,ENE,64,0.0,0.0,81,0.00,,SCT020,0.27,VWS V14.01,2013-09-18 03:42:00,
2013-09-17 23:47:00,79.8,73.4,29.89,ENE,64,0.0,0.0,81,0.00,,SCT020,0.27,VWS V14.01,2013-09-18 03:47:00,
2013-09-17 23:50:00,79.8,73.4,29.89,ENE,64,0.0,0.0,81,0.00,,SCT020,0.27,VWS V14.01,2013-09-18 03:50:00,
2013-09-17 23:51:00,79.8,73.4,29.89,ENE,64,0.0,0.0,81,0.00,,SCT020,0.27,VWS V14.01,2013-09-18 03:51:00,
2013-09-17 23:52:00,79.8,73.4,29.89,ENE,64,0.0,0.0,81,0.00,,SCT020,0.27,VWS V14.01,2013-09-18 03:52:00,
2013-09-17 23:57:00,79.6,73.3,29.89,ENE,64,0.0,0.0,81,0.00,,SCT020,0.27,VWS V14.01,2013-09-18 03:57:00,
2013-09-17 23:58:00,79.6,73.3,29.89,ENE,64,0.0,0.0,81,0.00,,SCT020,0.27,VWS V14.01,2013-09-18 03:58:00,
2013-09-17 23:59:00,79.6,73.3,29.89,ENE,64,0.0,0.0,81,0.00,,SCT020,0.27,VWS V14.01,2013-09-18 03:59:00,